GFSNE_500_rhum_003.txt.gz
RH
57 67 77 76 85 84 90 100 97 83 73 82 90 100 100 93 100 84 78 83 75 86 90 90 90 96 96 95 97 86 98 81 100 98 98 87 76 73
45 46 47 57 78 82 86 90 99 100 84 92 99 99 100 98 83 78 79 94 84 100 100 97 93 98 100 100 97 97 89 90 100 100 87 86 79 74
51 49 50 54 55 60 72 66 84 89 91 76 89 81 78 84 88 75 81 86 77 99 100 97 98 99 100 98 100 92 89 98 100 95 86 85 84 77
62 61 59 57 53 52 53 60 69 82 94 84 77 86 86 82 85 67 82 70 83 93 99 100 95 99 99 98 96 90 90 100 100 90 89 92 78 83
66 62 59 55 51 48 46 45 41 38 44 58 68 78 86 74 81 69 83 82 86 92 98 98 100 98 99 99 96 97 99 100 90 88 95 83 88 90
70 68 62 57 52 47 44 40 39 41 48 43 48 57 65 64 68 80 91 100 100 95 95 98 98 99 96 100 99 99 97 99 85 98 89 87 96 96
66 65 61 61 56 52 48 44 39 43 57 55 47 46 45 55 64 98 97 97 79 82 100 93 94 93 99 98 100 100 100 95 94 98 88 96 99 98
75 77 77 73 66 59 52 44 38 36 43 57 48 40 33 58 98 98 96 99 98 85 100 97 100 95 99 100 100 100 99 84 100 98 97 97 100 86
94 90 87 76 61 49 43 34 31 28 24 23 26 31 29 39 89 100 100 93 84 94 99 98 100 98 99 93 100 99 95 100 98 98 99 100 89 45
88 76 64 55 44 36 32 27 23 22 22 24 28 24 32 47 59 94 84 98 99 83 99 97 100 100 96 100 100 100 99 94 96 99 100 91 58 13
69 62 56 51 44 30 25 22 17 15 18 19 20 26 53 71 98 96 99 100 98 99 99 100 99 99 100 100 100 98 88 97 100 100 98 67 14 12
35 30 25 20 17 15 15 14 13 14 14 13 15 25 82 100 100 99 100 100 100 99 100 99 100 100 100 100 99 98 100 100 100 99 72 16 12 14
12 12 12 11 12 14 16 15 14 13 11 10 13 88 100 91 94 100 100 99 100 99 99 100 100 99 100 100 98 92 100 93 96 79 19 12 12 10
7 8 8 7 10 10 12 11 29 41 23 26 28 97 100 88 86 96 98 99 100 98 99 100 100 100 96 86 96 98 95 95 87 29 12 12 9 11
4 5 5 7 7 9 12 32 70 81 65 52 57 98 100 100 99 100 100 100 99 100 100 100 100 100 100 100 96 91 100 86 31 11 11 8 11 14
4 5 5 6 7 15 26 65 71 62 52 47 85 96 100 100 100 100 99 100 100 100 100 100 100 100 96 100 97 95 83 28 11 10 8 15 20 28
5 6 6 6 13 41 57 72 56 61 54 47 88 100 100 100 100 100 100 100 99 99 98 98 97 94 100 99 97 74 22 12 9 7 15 24 32 35
6 5 4 12 36 48 67 67 78 71 58 84 97 100 100 100 100 100 100 100 99 98 93 95 99 97 96 100 80 22 12 8 5 13 27 34 40 40
7 5 10 28 48 62 61 88 100 93 91 100 100 100 100 100 100 100 100 97 92 89 87 100 100 100 100 79 22 9 5 5 16 22 24 31 36 45
7 7 19 36 58 62 89 100 100 96 100 100 100 100 100 100 100 100 95 93 92 100 100 100 100 99 58 11 5 4 10 17 37 73 91 83 73 92
6 10 29 52 63 71 100 100 100 97 100 100 100 100 100 100 100 99 100 90 100 99 96 98 86 30 7 4 6 9 11 27 58 84 73 29 33 73
6 12 36 62 63 99 100 100 100 100 100 100 100 100 100 100 98 97 100 100 100 97 96 70 11 5 4 5 9 22 59 89 96 79 33 30 25 63
7 20 58 65 76 100 100 100 100 100 100 100 100 100 100 95 97 86 97 100 94 89 37 8 4 4 4 9 21 59 100 96 47 42 61 54 58 77

GFSNE_500_rhum_006.txt.gz
RH
21 33 44 51 63 68 71 75 77 68 60 65 80 95 99 98 98 97 97 96 98 90 83 85 78 98 89 90 94 93 88 81 87 97 98 93 86 78
27 37 49 65 76 79 76 78 82 78 69 61 60 64 85 89 96 98 98 96 94 93 92 90 87 93 89 98 96 88 88 92 96 100 93 91 77 73
47 60 69 83 82 81 77 74 71 69 68 56 57 55 53 57 78 79 96 97 96 99 87 79 82 84 84 97 100 98 92 94 100 100 84 92 74 69
67 74 83 88 81 78 74 72 69 69 69 63 58 64 60 53 53 54 82 88 96 94 96 89 92 78 88 98 100 100 92 100 99 100 97 95 83 74
98 94 88 86 87 89 86 83 84 82 81 74 65 59 54 47 41 41 48 61 68 100 99 91 97 70 93 98 100 89 92 100 97 100 99 99 94 80
87 88 95 99 97 95 97 98 100 100 93 85 79 70 58 47 40 35 33 48 53 97 94 100 90 80 99 94 100 99 98 100 99 98 98 100 99 96
100 100 100 100 100 100 99 94 100 100 100 90 76 63 54 45 38 34 34 32 30 93 99 100 100 89 93 96 99 100 100 98 100 98 98 100 98 98
87 96 100 100 100 100 100 99 98 93 86 66 58 45 38 31 24 26 28 35 36 44 100 98 100 84 84 93 100 100 99 100 100 98 100 100 100 100
54 54 56 61 68 73 79 80 76 67 59 58 54 50 40 27 20 16 22 26 48 56 58 98 100 99 100 93 98 100 99 99 100 100 100 100 94 99
16 16 17 20 22 26 36 46 48 44 36 31 29 29 22 18 17 17 18 24 28 65 71 89 100 99 99 100 98 99 99 100 100 100 100 96 100 100
14 12 11 11 11 12 13 15 18 19 18 18 15 13 12 12 15 17 25 32 24 53 85 100 100 97 100 99 98 100 99 100 100 100 99 98 100 99
11 10 10 9 9 9 9 9 10 10 11 11 11 13 13 14 21 21 28 32 59 85 96 100 100 100 98 100 100 99 99 100 100 100 99 99 100 96
7 6 5 5 6 6 6 6 7 8 9 9 11 12 17 22 26 19 29 71 92 100 100 100 100 96 100 100 100 99 100 100 100 98 92 100 96 91
6 6 5 5 5 5 5 5 6 7 8 9 11 35 33 32 22 45 100 100 99 98 97 100 100 100 100 100 100 99 100 100 97 100 99 91 86 50
9 8 6 5 5 5 6 7 7 8 9 19 74 69 63 41 59 100 100 100 100 94 100 100 100 100 99 98 100 100 99 100 100 92 87 86 48 13
9 9 6 5 5 6 8 9 14 17 23 76 68 59 56 58 98 100 100 100 99 99 100 100 98 98 98 100 100 100 100 99 89 87 84 36 13 9
9 10 6 6 6 8 9 22 28 31 68 59 58 60 87 91 100 100 100 100 100 99 100 100 99 100 100 100 100 100 96 84 88 72 20 10 6 6
11 9 5 7 8 9 23 32 34 69 68 64 94 100 85 100 100 100 100 100 100 100 100 100 100 100 100 100 98 90 87 86 40 12 5 7 17 17
9 8 5 7 10 25 32 36 76 96 100 100 100 64 95 100 100 100 100 100 100 100 100 100 100 100 99 97 88 87 50 12 4 6 13 16 36 49
6 7 5 9 19 40 36 71 100 100 100 100 100 100 100 100 100 100 100 100 100 100 100 100 100 93 88 86 54 11 5 6 9 15 33 62 91 99
8 7 6 12 36 34 65 97 100 100 100 100 100 100 99 100 100 100 100 100 100 100 100 97 96 94 47 11 4 4 7 19 40 64 89 100 96 66
9 6 8 23 31 62 90 100 100 100 100 100 100 100 100 100 100 100 100 100 100 100 100 97 46 15 6 6 5 7 14 32 63 56 46 37 53 50
9 6 11 25 53 82 100 100 100 100 100 100 100 100 100 100 100 100 100 99 99 96 46 12 6 5 6 15 28 40 46 23 8 23 84 91 78 75

GFSNE_500_rhum_009.txt.gz
RH
13 14 16 17 19 28 42 54 82 54 27 26 40 52 69 73 68 74 78 76 94 100 99 98 96 97 89 84 95 100 87 94 93 99 100 99 100 84
13 14 16 21 25 41 65 87 100 100 88 53 55 64 74 72 73 68 65 67 81 92 99 100 99 100 97 97 100 100 99 93 86 98 100 100 100 84
10 14 17 25 34 59 90 100 100 100 100 85 92 93 91 84 82 77 67 62 66 82 77 82 91 99 99 97 99 100 99 85 86 89 100 93 92 94
12 19 30 32 46 72 90 98 99 100 100 97 87 84 87 89 82 85 79 72 65 60 54 54 72 92 90 99 97 89 92 90 94 96 83 84 91 97
44 52 61 74 81 94 99 99 100 100 100 100 93 87 87 93 91 77 89 82 79 72 50 41 46 64 77 100 99 98 95 98 94 99 92 96 98 100
61 73 81 87 90 89 92 93 94 94 93 94 97 91 97 100 100 100 99 96 80 68 54 40 44 45 70 100 100 98 98 83 97 98 100 92 93 100
42 38 35 33 34 31 28 26 27 32 46 69 86 92 93 99 100 98 89 73 71 46 44 40 39 38 45 61 98 99 99 87 100 99 100 100 100 100
31 31 27 26 24 23 22 22 20 17 16 16 26 47 69 90 89 81 68 64 57 34 28 30 34 35 38 49 99 100 100 98 100 100 100 99 100 99
23 21 21 20 19 18 17 16 14 13 12 12 14 15 22 38 51 55 56 49 47 43 30 23 18 29 53 69 91 100 100 100 100 100 100 100 100 99
21 19 17 16 16 14 13 11 9 8 9 10 11 11 12 15 17 21 25 25 22 19 16 15 15 17 36 90 90 99 100 99 100 98 98 100 100 100
13 12 11 10 10 9 8 6 5 5 5 6 8 10 10 11 12 13 13 13 13 11 12 15 16 21 37 100 100 99 99 99 99 100 96 99 99 99
6 6 7 8 8 7 6 5 4 4 5 6 7 7 8 9 11 12 12 10 11 9 16 23 56 29 43 95 100 100 100 99 99 99 99 97 100 100
8 9 11 12 11 10 9 6 5 4 4 5 6 7 9 10 13 20 18 12 12 14 18 40 74 77 100 100 100 100 100 96 99 99 100 99 100 100
20 20 18 14 12 11 8 6 5 5 5 6 6 8 10 14 19 26 34 18 15 22 69 94 96 100 100 97 100 100 100 98 100 99 100 100 100 100
19 17 16 18 16 11 7 5 6 6 7 8 9 12 33 60 76 82 67 34 53 98 100 100 100 100 100 100 100 100 100 100 99 100 100 100 100 99
20 22 22 18 13 9 6 7 9 10 11 10 14 59 90 85 77 66 64 94 100 100 100 100 100 99 100 100 100 100 100 100 100 100 100 100 100 97
14 17 15 11 10 6 7 11 13 15 19 46 79 75 75 69 64 93 100 100 100 100 100 100 100 100 100 100 100 100 100 100 100 100 100 95 88 90
11 9 7 8 7 6 11 14 30 32 72 96 100 98 68 73 100 100 100 100 100 100 100 100 100 100 100 100 100 100 100 100 100 99 94 93 77 20
26 8 5 7 6 11 16 36 44 84 100 100 100 100 100 100 100 100 100 100 100 100 100 100 100 100 100 100 100 100 100 100 98 98 60 14 4 5
30 8 7 6 8 18 39 57 87 100 100 100 100 100 100 100 100 100 100 100 100 100 100 100 100 100 100 100 100 100 97 73 37 11 4 5 8 11
30 10 7 7 13 38 63 93 100 100 100 100 100 100 100 100 100 100 100 100 100 100 100 100 100 100 100 100 85 46 17 5 4 5 8 22 44 65
23 8 7 8 26 48 90 100 100 100 100 100 100 100 100 100 100 100 100 100 100 100 100 100 100 100 71 17 6 9 15 26 40 47 41 31 17 15
13 8 6 12 31 91 100 100 100 100 100 100 100 100 100 100 100 100 100 100 100 100 99 62 14 8 10 22 39 42 37 30 18 12 11 16 59 84

GFSNE_500_rhum_012.txt.gz
RH
8 8 7 6 6 7 10 12 17 12 8 8 16 22 43 65 86 100 94 85 97 100 100 100 100 99 100 97 98 97 99 98 95 78 76 81 90 100
8 7 7 7 8 11 18 30 41 56 51 31 35 55 92 100 100 100 100 100 96 96 92 95 98 95 91 96 97 99 100 99 98 96 89 93 77 96
7 8 10 16 25 37 47 59 64 72 76 59 74 85 92 100 100 100 99 100 100 100 100 97 86 81 78 81 90 99 99 98 99 100 98 96 98 80
13 25 34 39 37 38 42 43 43 44 47 41 45 54 65 78 92 100 100 100 100 100 100 100 92 82 91 81 94 99 100 100 98 99 98 96 98 80
52 57 54 50 42 43 40 35 35 36 36 32 25 25 25 29 48 70 90 97 100 100 100 100 100 93 78 91 76 74 69 88 99 99 98 99 98 83
79 76 72 66 56 48 45 45 44 41 39 34 26 23 22 22 21 19 40 76 92 99 100 100 100 98 100 87 81 72 50 50 93 100 100 96 95 97
66 60 54 46 39 33 30 27 26 24 23 22 22 20 18 17 17 17 16 22 61 85 91 98 100 90 98 87 86 66 50 45 67 97 100 100 99 99
40 39 38 36 31 27 21 17 16 15 14 14 13 12 12 13 13 12 12 14 19 61 89 90 98 99 92 71 57 50 45 46 56 59 96 100 100 95
15 13 11 10 8 8 7 7 7 7 8 7 6 6 7 8 8 8 9 10 13 23 62 81 85 72 64 50 30 29 34 39 46 52 84 98 99 100
7 9 11 9 8 8 8 7 8 7 8 7 6 5 6 5 5 5 8 10 12 14 24 43 59 70 62 56 44 28 26 27 37 43 72 100 100 100
13 9 9 10 15 20 21 19 15 13 14 11 8 6 6 6 5 5 7 9 10 12 15 18 26 34 32 28 26 22 20 19 31 85 97 100 100 100
7 8 10 10 13 18 21 20 17 14 12 10 8 6 6 6 6 6 7 8 9 10 12 13 13 14 14 13 14 16 17 22 56 100 100 99 100 100
7 8 10 10 10 11 14 16 14 12 10 6 6 6 6 7 8 9 8 8 9 10 11 12 12 11 10 13 25 20 19 80 100 100 100 100 99 100
9 11 12 10 12 16 16 14 12 10 6 6 8 10 11 16 29 17 13 12 11 11 17 16 20 26 29 96 65 34 42 93 100 100 100 99 99 100
11 26 29 12 11 12 11 10 8 6 9 11 21 29 27 27 30 43 51 32 30 40 45 51 51 40 49 78 83 100 100 98 100 100 100 100 100 100
10 30 35 28 10 6 7 8 6 11 14 24 43 45 53 72 86 75 69 63 62 89 100 100 100 100 100 100 100 100 100 100 100 100 100 100 100 100
8 17 34 34 10 7 9 6 11 16 32 58 87 100 100 89 82 62 59 62 95 99 98 99 98 98 100 100 100 100 100 100 100 100 100 100 100 100
9 13 35 25 6 7 7 13 20 56 90 100 100 100 92 67 58 77 98 100 100 100 100 100 100 100 100 100 100 100 100 100 100 100 100 100 100 100
11 20 35 13 8 7 10 26 62 100 100 100 100 100 97 62 98 100 100 100 100 100 100 100 100 100 100 100 100 100 100 100 100 100 100 100 100 100
13 32 27 9 7 9 30 75 100 100 100 100 100 96 98 99 100 100 100 100 100 100 100 100 100 100 100 100 100 100 100 100 100 100 100 100 93 66
25 34 15 7 7 26 74 100 100 100 100 100 100 98 98 100 100 100 100 100 100 100 100 100 100 100 100 100 100 100 100 100 91 61 31 10 5 5
34 23 8 6 20 66 100 100 100 100 100 100 100 100 100 100 100 100 100 100 100 100 100 100 100 100 100 100 99 81 51 19 9 11 20 30 34 39
30 10 6 12 57 100 100 98 100 100 100 100 100 100 100 100 100 100 100 100 100 100 100 100 100 96 65 24 26 33 38 37 35 32 28 26 21 15

GFSNE_500_rhum_015.txt.gz
RH
12 11 8 7 7 5 6 10 22 17 8 10 22 31 31 34 40 49 63 90 100 100 100 100 100 100 96 96 98 98 100 98 95 100 94 96 98 96
10 8 7 6 4 5 15 42 64 69 61 47 39 33 31 35 43 53 59 68 87 99 100 100 100 100 95 98 93 85 81 99 98 71 77 95 97 99
8 6 5 4 8 15 30 53 72 81 78 57 52 33 28 28 29 29 30 36 52 69 90 100 100 100 100 97 94 99 98 82 66 98 99 100 100 99
6 4 6 14 24 38 48 59 66 67 70 70 63 48 40 33 27 27 31 26 22 23 41 66 86 100 100 100 100 92 95 100 88 92 89 99 99 98
6 12 16 15 15 16 16 18 24 32 40 44 50 48 43 38 33 29 27 24 22 20 19 21 51 81 100 100 99 99 90 95 94 90 77 96 98 98
16 13 12 11 9 8 7 7 8 10 12 14 16 22 32 36 35 36 33 25 22 17 16 17 17 35 73 100 98 98 100 95 99 87 80 84 92 98
14 12 8 5 5 6 7 7 7 7 7 7 7 7 7 9 12 14 20 21 16 13 13 13 14 16 34 75 99 100 99 100 98 92 84 86 70 96
12 7 6 8 9 8 6 5 6 7 8 9 9 8 7 8 7 6 6 7 7 8 8 10 12 14 16 55 96 100 100 99 97 85 89 91 90 97
7 6 9 9 8 6 5 5 6 8 10 12 16 18 15 15 11 8 6 4 4 5 6 8 11 11 15 29 80 100 100 89 86 67 92 89 88 76
6 8 9 8 8 8 6 6 7 9 12 14 18 19 19 18 14 10 6 4 5 6 5 5 7 9 13 20 56 96 96 98 90 89 90 94 85 56
8 8 8 9 9 8 7 8 7 11 15 17 17 17 16 14 11 8 7 6 5 6 6 6 8 9 12 16 31 74 99 96 85 78 67 57 31 30
9 8 8 9 8 8 23 20 7 9 9 10 12 10 8 8 7 6 7 7 7 8 7 8 10 11 13 14 25 50 70 81 75 66 68 48 29 27
9 9 9 10 9 15 30 30 13 6 7 7 7 10 11 11 13 14 31 52 27 9 10 10 11 11 12 14 15 28 43 47 49 42 49 35 21 46
9 9 10 11 10 13 26 32 10 6 7 7 11 16 23 64 50 72 75 39 13 11 13 10 12 12 12 13 14 16 18 22 24 24 30 22 25 95
9 9 11 11 11 12 35 20 6 6 8 15 25 90 91 82 79 76 90 94 38 18 27 35 21 18 12 11 11 12 12 12 14 14 15 19 83 100
11 10 16 14 11 26 30 8 7 10 22 64 100 100 100 100 100 100 92 52 66 72 76 58 39 32 20 15 14 17 44 49 31 24 48 97 100 100
10 24 25 13 22 33 11 7 12 58 99 100 100 100 100 100 100 72 66 68 93 100 100 100 100 100 93 55 44 95 100 98 73 71 93 100 100 100
28 31 18 23 30 9 8 19 82 100 96 100 99 100 99 70 55 61 87 100 100 100 100 100 100 100 98 100 100 96 97 97 100 100 100 100 100 100
33 26 25 30 10 7 31 92 100 100 100 100 100 100 100 77 94 100 100 100 100 100 100 100 100 100 100 100 100 100 100 100 100 100 100 100 100 100
28 30 30 13 7 30 91 96 99 100 100 100 100 100 95 100 100 100 100 100 100 100 100 100 100 100 100 100 100 100 100 100 100 100 100 100 100 100
28 28 14 7 29 88 95 100 100 100 100 100 100 100 100 100 100 100 100 100 100 100 100 100 100 100 100 100 100 100 100 100 100 100 100 100 100 100
25 14 7 31 88 95 100 100 100 100 100 100 100 100 100 100 100 100 100 100 100 100 100 100 100 100 100 100 100 100 100 100 100 100 100 99 98 95
14 6 33 91 93 100 100 100 100 100 100 100 100 100 100 100 100 100 100 100 100 100 100 100 100 100 98 97 94 85 78 66 60 56 48 29 23 20

GFSNE_500_rhum_021.txt.gz
RH
35 32 28 23 18 15 13 11 9 9 7 4 4 4 4 5 5 7 7 7 7 7 8 12 20 53 73 61 61 57 43 37 73 66 98 100 92 74
34 27 21 18 16 14 11 9 7 7 6 4 4 4 4 6 7 5 4 4 4 4 4 5 10 23 74 77 64 85 75 48 45 68 99 98 100 99
26 21 18 15 12 10 8 7 7 7 8 5 7 6 7 5 4 5 6 7 6 6 6 5 4 8 27 74 79 74 93 78 55 39 66 97 100 97
20 16 13 11 9 8 8 8 8 12 16 12 9 6 4 5 7 7 8 8 8 7 5 5 5 5 7 30 77 75 80 76 58 55 49 57 92 100
13 10 8 8 9 10 10 12 18 17 14 9 4 6 8 9 7 8 6 5 6 5 6 6 6 6 5 8 41 73 69 64 48 60 61 57 59 84
8 9 10 12 13 12 18 22 18 15 9 5 9 9 9 8 8 6 6 12 7 7 8 9 10 8 6 6 12 57 62 45 34 32 38 50 50 58
11 13 14 14 14 29 24 19 17 9 6 9 9 8 9 9 8 8 13 15 7 7 9 9 12 14 12 7 6 22 62 44 32 25 22 21 24 43
14 14 15 23 35 25 21 20 8 7 8 11 9 8 9 10 8 12 19 6 6 9 8 8 14 16 17 12 6 9 38 53 38 27 22 22 19 18
15 17 29 37 27 23 21 8 7 10 17 13 10 10 10 10 16 17 6 6 7 10 8 9 14 15 19 16 8 6 15 50 47 33 26 27 26 20
24 38 39 30 27 22 8 8 12 14 14 18 21 14 13 21 18 6 7 9 13 15 12 11 20 17 15 15 10 6 6 16 45 46 35 35 38 29
41 41 33 29 23 7 9 17 17 19 28 22 16 22 25 13 9 10 19 34 37 50 87 80 100 97 42 11 9 7 6 6 8 16 24 29 28 20
40 34 33 25 8 10 22 22 25 27 18 22 27 16 10 17 23 34 38 60 75 100 100 91 100 97 32 11 8 6 5 5 5 5 6 9 11 13
33 30 25 8 8 24 26 26 23 22 25 14 13 38 59 80 97 98 87 80 83 98 98 67 98 99 62 81 12 7 6 6 6 7 8 9 11 14
31 25 9 6 24 26 26 27 28 20 10 46 88 99 100 100 100 97 99 100 96 94 100 99 91 94 55 51 17 10 8 8 10 11 12 14 15 52
24 9 5 22 27 24 27 24 9 18 74 100 100 100 100 100 100 97 94 75 84 86 100 100 85 47 23 24 20 17 13 12 12 14 15 18 56 95
6 5 19 27 26 24 17 8 36 90 99 97 95 98 94 96 85 76 84 89 95 94 96 98 88 69 34 23 17 17 16 16 16 16 18 61 100 74
6 17 25 29 27 16 9 45 92 95 100 100 100 100 100 100 98 97 99 100 100 100 100 100 100 100 88 40 20 17 20 21 17 17 27 48 99 96
18 23 26 29 13 10 65 100 99 100 100 100 100 100 100 100 100 100 100 100 100 100 100 100 100 100 96 90 56 26 22 21 19 17 26 22 40 54
23 23 31 14 10 80 100 100 100 100 100 100 100 100 100 100 100 100 100 100 100 100 100 100 100 100 100 100 100 65 31 36 23 22 20 42 99 94
22 30 18 14 90 100 100 100 100 100 100 100 100 100 100 100 100 100 100 100 100 100 100 100 100 100 100 100 98 83 62 68 74 78 80 100 100 100
29 19 19 95 100 100 100 100 100 100 100 100 100 100 100 100 100 100 100 100 100 100 100 100 100 100 100 100 100 100 94 92 97 100 100 100 100 100
19 22 99 100 100 100 100 100 100 100 100 100 100 100 100 100 100 100 100 100 100 100 100 100 100 100 100 100 100 100 100 100 100 100 100 100 100 99
31 100 100 100 100 100 100 100 100 100 100 99 97 96 98 99 100 100 100 100 100 100 100 100 100 100 100 100 100 100 100 100 100 100 100 100 100 97

GFSNE_500_rhum_027.txt.gz
RH
43 40 32 23 16 10 8 7 6 5 4 5 5 5 5 5 5 4 4 4 4 6 7 7 8 9 9 10 9 8 7 6 6 6 6 5 5 6
29 21 13 10 9 8 8 7 7 6 5 5 5 5 4 4 3 4 6 7 10 12 12 12 11 9 7 6 5 4 4 4 5 4 4 5 6 7
12 11 11 10 9 7 7 7 7 8 7 5 5 3 2 2 4 9 13 16 15 11 7 6 5 6 6 6 7 8 8 8 7 7 6 5 4 5
13 12 10 7 7 7 7 7 7 7 5 4 3 3 6 10 15 16 15 9 6 8 11 10 11 11 10 9 8 8 8 8 7 7 8 8 6 5
12 9 8 7 8 8 7 6 5 4 5 9 7 11 15 17 15 10 5 9 18 19 20 20 14 11 10 9 9 10 8 7 6 6 6 6 8 7
9 9 9 10 9 8 6 4 5 8 14 18 20 18 17 14 6 9 15 20 21 24 18 15 15 16 13 10 9 9 9 10 11 10 10 6 6 7
11 13 12 11 8 4 5 8 16 20 23 23 21 18 11 5 18 21 20 18 20 23 17 19 17 16 16 13 9 7 6 6 6 6 7 7 6 6
15 13 13 9 4 6 14 21 26 28 25 21 13 5 7 24 23 22 15 15 23 42 19 20 14 19 12 10 10 10 9 8 7 7 6 6 6 6
16 17 9 4 8 16 20 24 23 17 7 5 5 20 24 19 11 13 47 75 90 100 58 64 83 68 35 20 35 65 75 71 53 24 13 10 6 6
21 9 5 10 17 20 18 12 6 6 7 21 31 25 12 26 46 61 65 69 85 100 100 85 63 54 69 91 99 95 100 98 88 77 91 20 13 7
9 7 15 15 11 8 7 6 10 23 32 34 21 15 56 85 82 78 84 86 91 92 100 77 88 64 80 93 100 94 100 100 100 54 37 23 16 10
9 14 9 7 8 9 14 18 25 29 22 19 48 100 100 100 99 98 93 76 78 76 72 81 86 70 100 100 100 100 100 100 57 25 17 16 12 8
13 8 10 12 15 19 20 25 24 18 62 100 100 97 96 100 100 100 98 93 96 96 90 94 100 99 83 97 79 77 92 68 20 12 11 9 7 6
10 16 15 18 19 21 23 18 36 99 100 99 99 100 100 100 100 100 99 98 94 99 100 99 100 100 99 57 49 69 45 20 20 40 10 6 5 6
16 18 19 19 20 23 15 70 97 97 100 100 100 100 100 100 100 100 100 100 98 98 100 100 100 100 83 38 65 35 100 100 100 100 86 8 6 21
18 19 18 20 19 19 86 96 100 98 99 100 100 100 100 100 100 100 100 100 100 100 100 100 100 100 65 38 42 38 99 100 90 100 100 18 12 47
18 19 22 19 26 98 100 99 100 100 100 100 100 100 100 100 100 100 100 100 100 100 100 100 96 93 58 46 46 86 100 90 22 15 14 9 11 40
20 24 18 54 98 100 100 100 100 100 100 100 100 100 100 100 100 100 100 100 100 100 100 97 74 44 32 40 64 42 53 62 23 86 51 12 7 12
26 19 78 100 100 100 100 100 100 100 99 97 95 100 100 100 100 100 100 100 100 100 100 96 94 52 30 32 28 27 33 40 76 100 97 26 20 36
20 88 100 100 100 100 100 100 100 98 82 60 47 55 76 96 100 97 100 100 100 100 100 100 100 74 29 26 22 23 23 38 83 100 100 58 28 27
88 97 100 100 100 100 97 76 42 30 31 32 30 23 19 20 53 96 97 95 98 100 100 100 100 82 41 28 26 25 52 60 93 100 100 100 100 96
93 100 100 99 90 52 28 28 32 42 40 37 32 24 19 15 16 26 83 100 99 98 100 100 100 100 58 55 60 38 86 97 94 99 100 100 100 98
99 100 95 55 23 21 25 32 35 36 35 36 41 25 24 21 18 22 35 43 98 100 95 100 100 100 100 81 61 80 84 90 61 100 99 96 99 100

GFSNE_500_rhum_030.txt.gz
RH
44 38 30 21 16 14 13 12 10 9 7 6 6 6 6 6 5 5 4 4 3 3 3 2 2 3 4 4 4 4 4 4 3 3 3 4 4 5
34 25 19 16 14 13 11 10 9 9 7 7 6 6 6 5 4 3 3 3 4 6 8 8 9 10 10 10 10 10 9 9 8 8 9 8 8 7
22 18 16 13 12 11 9 8 8 8 8 7 7 7 5 3 2 3 5 9 12 17 18 17 14 11 8 6 6 5 5 5 5 5 6 6 7 7
18 16 13 11 10 9 8 8 9 10 11 9 6 3 3 4 8 10 15 19 18 16 13 6 9 17 16 15 14 14 11 8 8 7 6 5 5 6
16 12 11 10 9 10 11 12 12 12 7 4 4 8 11 14 13 15 14 12 9 6 14 22 24 19 16 18 19 16 13 10 9 8 9 8 8 8
13 11 11 12 12 13 13 14 10 5 7 11 13 14 12 9 6 5 4 4 13 23 23 21 16 12 12 12 14 15 13 12 11 10 8 8 9 9
12 13 13 15 16 16 13 6 7 9 8 7 7 6 6 5 6 10 18 16 12 15 23 57 41 44 30 17 13 12 10 9 10 12 12 11 10 9
14 15 17 19 17 8 5 9 8 7 8 8 8 14 25 29 25 16 27 36 56 87 91 100 99 88 77 66 43 24 20 12 10 9 8 7 6 6
18 20 20 15 6 5 8 7 8 12 17 21 26 28 20 17 41 76 86 86 84 93 85 94 99 97 93 98 63 38 44 63 67 64 85 73 47 10
23 21 12 5 7 8 8 10 14 19 25 26 21 24 62 84 86 89 91 86 92 95 47 66 80 65 68 72 58 55 57 65 82 85 99 100 97 63
20 10 6 8 7 9 12 14 19 23 23 35 80 95 99 100 100 98 100 100 99 97 67 79 86 82 84 85 70 75 90 99 100 100 100 100 83 65
8 6 8 6 12 15 14 18 19 29 88 100 100 100 100 100 98 92 91 97 100 100 97 100 98 91 100 90 84 97 100 100 80 50 34 17 45 30
6 7 6 12 15 14 17 18 50 90 94 99 100 100 100 100 100 100 100 96 99 100 98 99 100 100 92 90 70 49 36 43 86 91 34 16 18 18
8 6 12 15 14 17 16 60 93 97 100 100 98 100 100 100 100 100 100 100 93 93 99 99 100 100 80 42 37 65 89 100 100 100 100 18 13 16
6 14 16 16 18 16 71 89 95 97 96 97 100 100 100 100 100 100 100 100 100 92 100 100 100 100 50 38 98 100 95 100 100 100 100 18 8 10
12 18 20 18 22 81 86 88 92 94 96 99 100 100 100 100 100 100 100 100 100 100 100 100 100 82 35 49 100 83 39 50 100 100 91 8 6 6
14 21 19 45 94 92 87 92 94 94 98 100 100 100 100 100 100 100 100 100 100 100 100 92 74 42 45 59 70 49 96 100 72 49 19 8 8 25
17 19 64 90 91 94 100 98 97 99 92 66 46 40 54 80 100 100 100 99 100 100 100 83 46 43 57 52 62 77 100 100 65 13 10 21 54 75
17 69 87 92 95 98 98 91 72 41 34 40 32 24 18 16 31 91 98 100 100 100 100 100 59 44 45 60 36 96 100 100 77 19 12 37 67 70
57 90 94 92 95 86 46 28 30 43 47 39 37 27 21 15 14 18 84 100 100 100 100 100 91 52 39 50 47 98 100 100 100 64 24 16 49 59
92 92 88 79 41 20 23 30 37 39 38 36 35 36 23 17 13 15 26 94 100 100 100 100 100 67 36 53 96 100 100 99 94 100 91 42 26 38
92 77 39 20 22 25 29 35 40 44 45 47 52 50 26 22 18 23 30 39 98 100 100 100 100 74 43 51 100 99 92 99 100 100 100 100 86 38
49 23 21 28 34 42 52 64 63 50 40 65 77 52 34 30 34 35 34 33 49 100 100 100 100 100 92 70 100 100 100 100 100 100 100 100 100 100

GFSNE_500_rhum_033.txt.gz
RH
61 60 44 30 22 18 18 19 16 12 8 9 9 9 8 7 7 7 7 6 6 6 6 5 4 3 3 3 3 3 3 3 2 2 2 2 2 2
59 39 27 21 20 21 17 13 11 10 10 11 9 7 7 8 8 7 5 4 4 4 4 5 5 7 7 7 7 7 6 6 6 6 6 5 4 3
36 27 23 23 20 15 13 10 11 14 11 7 7 8 8 6 4 3 4 5 6 8 11 12 13 13 12 12 11 11 11 10 10 9 9 9 9 9
29 25 24 17 15 11 11 14 12 10 10 10 8 5 4 4 4 4 4 5 6 6 7 6 5 5 5 5 5 5 6 9 11 13 11 10 8 6
27 23 17 13 12 15 13 10 10 10 9 5 4 5 5 5 5 5 7 8 12 16 20 15 15 14 15 17 18 17 17 14 13 13 13 18 19 18
22 18 15 16 15 12 11 10 9 5 4 5 5 5 7 12 20 21 21 23 21 22 20 18 14 12 13 22 36 40 41 25 16 14 12 14 17 17
20 19 17 13 12 12 12 8 4 5 6 6 9 14 18 18 18 33 50 61 78 91 87 87 69 72 78 71 58 55 59 62 42 25 12 10 10 14
19 14 14 14 13 12 6 4 6 6 12 13 16 16 18 52 80 85 92 90 96 100 62 97 80 81 84 80 76 71 59 67 39 15 14 13 10 8
15 16 15 14 11 4 4 6 7 14 15 16 15 48 74 85 86 95 100 100 100 89 63 97 84 76 83 82 74 66 66 62 53 46 48 40 27 23
17 16 14 9 4 6 6 7 12 14 16 24 75 81 82 87 86 88 90 100 100 99 79 94 91 100 100 100 82 71 62 68 78 86 86 90 78 85
16 14 7 4 6 6 8 12 14 17 44 87 86 86 91 93 86 82 89 93 100 100 86 98 98 92 100 93 84 86 83 92 100 100 100 99 100 100
12 6 4 7 6 12 13 14 17 65 89 97 99 100 97 96 88 86 85 87 90 100 96 96 100 93 100 90 75 37 32 25 34 64 94 99 77 41
5 5 7 6 12 16 16 24 76 84 93 96 98 100 99 98 100 96 95 90 92 94 92 90 99 99 94 69 30 35 43 93 98 91 96 100 100 87
6 8 6 11 16 15 34 84 86 90 96 96 94 93 99 100 100 100 100 100 97 85 93 94 92 94 54 36 67 76 84 86 92 100 100 100 100 99
8 7 10 15 16 57 85 88 88 91 92 95 99 99 92 93 96 100 100 100 100 90 96 73 66 33 28 77 82 80 94 92 86 97 100 100 30 13
7 9 14 16 60 78 82 85 87 88 87 82 62 40 25 32 57 89 100 100 100 100 97 48 31 36 56 82 88 100 100 98 96 100 58 10 38 11
7 14 16 61 87 89 86 82 83 70 43 30 26 28 22 19 15 24 86 100 93 100 100 51 40 51 62 87 98 99 100 63 15 8 10 6 6 6
13 16 60 85 88 88 90 70 32 23 26 37 36 33 26 19 15 14 24 99 96 100 100 41 39 38 72 100 100 95 71 21 17 34 36 26 17 14
16 67 86 90 86 59 23 20 22 27 35 40 36 33 30 24 15 14 17 89 98 100 100 45 38 38 72 99 100 85 68 18 47 76 98 100 100 100
69 88 89 58 24 20 22 25 31 36 43 44 40 38 38 29 19 17 20 53 100 100 100 80 44 38 67 99 100 100 98 36 42 73 84 100 100 100
93 72 27 20 29 43 54 62 69 71 62 46 49 62 52 30 22 20 24 30 98 100 100 84 62 50 77 80 100 100 98 89 97 52 65 68 66 48
37 22 41 54 57 60 59 60 60 56 52 48 80 70 42 40 49 40 37 36 62 100 100 100 64 66 97 82 93 100 100 100 100 62 45 53 42 39
39 49 38 35 30 31 28 26 28 29 35 85 88 51 61 63 63 62 56 37 34 99 100 100 99 77 100 80 95 94 100 100 100 100 74 36 46 45

GFSNE_500_rhum_036.txt.gz
RH
78 70 64 70 58 42 34 26 23 20 16 15 14 13 11 9 8 7 7 6 5 3 2 2 2 3 3 4 3 4 4 4 3 3 3 3 4 4
66 69 74 54 40 34 29 25 22 19 16 14 12 8 7 7 6 5 3 2 2 3 4 4 3 3 3 3 4 5 6 7 8 7 7 6 4 3
76 74 50 40 35 29 24 21 18 14 10 7 6 6 6 4 3 2 3 4 4 10 16 15 15 13 8 6 5 4 5 5 7 9 11 12 12 10
71 47 41 34 26 22 18 13 8 6 7 7 6 3 2 3 4 4 7 14 17 18 18 18 18 16 16 18 16 16 12 5 4 5 7 10 12 13
47 41 29 23 17 10 7 7 7 6 5 4 3 3 4 5 7 13 15 24 50 64 63 65 55 65 62 64 62 38 17 12 13 13 12 13 12 11
37 26 14 8 7 6 6 6 5 4 3 3 4 5 7 11 14 37 54 73 79 68 60 61 65 67 74 70 75 80 72 62 58 56 50 42 29 16
27 19 10 7 7 7 6 5 4 3 4 5 6 9 12 28 57 67 73 78 99 66 73 95 66 77 79 68 67 70 64 71 88 90 87 81 75 27
22 9 9 9 7 6 5 4 4 6 6 9 9 14 56 63 70 74 80 87 90 91 77 100 77 94 89 95 91 92 79 70 51 49 63 79 96 47
10 11 10 8 7 5 4 4 6 9 12 11 27 57 62 70 75 81 84 90 95 82 63 90 90 99 93 100 89 87 90 91 86 60 54 47 46 44
14 12 9 8 6 4 4 5 9 13 13 39 63 66 71 72 74 72 72 84 92 89 61 89 89 95 100 91 82 94 94 77 92 67 47 59 61 63
10 9 10 8 4 4 6 7 14 17 56 70 67 74 80 80 76 73 77 81 88 100 88 97 86 94 100 85 94 84 37 27 31 33 46 59 79 81
9 12 9 4 6 6 6 13 25 69 76 78 87 90 89 90 84 79 77 88 76 86 94 74 59 33 95 67 49 48 68 65 80 92 83 78 86 90
12 9 4 7 7 7 13 23 73 75 79 81 88 92 93 84 76 72 80 88 81 81 83 50 22 28 21 50 70 89 89 100 100 90 80 88 93 100
8 5 7 7 7 13 20 72 78 79 82 86 88 80 58 30 22 18 24 70 88 72 86 44 22 24 43 88 99 100 100 100 100 92 100 98 89 100
5 7 8 8 13 21 73 75 80 82 79 74 39 26 24 24 23 20 14 17 89 77 94 38 32 45 71 93 90 100 96 69 38 59 97 100 69 67
7 8 9 13 22 72 79 79 71 44 17 17 21 28 28 28 25 21 14 14 92 96 90 31 34 65 90 99 86 100 37 23 20 17 10 8 7 8
8 9 14 39 83 87 78 41 19 16 19 23 26 31 31 29 26 21 15 14 73 100 98 33 43 79 85 94 100 100 28 55 42 16 9 7 6 8
10 14 54 85 81 46 24 21 28 31 32 39 49 54 44 34 37 28 16 14 71 100 100 43 45 84 99 99 100 37 64 87 82 76 58 15 8 7
12 59 81 44 22 28 41 51 57 65 72 74 74 59 53 56 40 26 19 17 56 100 100 61 34 73 94 95 98 41 60 92 95 92 96 100 99 76
56 62 28 35 43 44 41 43 47 48 41 35 46 56 63 42 35 31 27 27 47 100 100 82 34 58 98 79 81 66 56 74 96 95 100 94 96 91
49 32 38 31 30 30 29 30 28 27 25 26 48 64 46 51 52 53 48 33 38 100 100 90 37 62 94 84 94 100 65 62 85 90 99 100 99 98
32 27 27 28 27 26 25 26 27 26 28 63 64 58 69 70 69 71 62 43 35 95 100 99 46 73 84 100 93 99 70 56 64 58 66 70 63 63
25 27 27 22 20 18 23 32 42 62 71 57 64 74 79 75 64 59 60 49 35 76 100 100 74 65 84 100 100 92 98 77 50 49 43 40 43 54

GFSNE_500_rhum_039.txt.gz
RH
74 78 68 66 61 63 67 60 50 42 33 22 16 14 15 16 16 16 15 12 8 5 3 3 2 2 3 3 3 3 3 3 3 3 2 2 2 2
69 60 64 61 70 67 55 45 30 26 23 12 13 14 16 15 10 8 5 3 2 3 3 3 4 4 5 8 14 15 12 12 11 10 7 4 3 3
64 64 66 72 64 53 38 26 17 12 14 16 14 12 11 7 4 3 2 3 4 6 10 13 22 29 38 45 48 48 49 41 38 32 17 14 6 5
63 74 75 61 49 32 21 13 16 10 7 9 10 6 4 3 2 3 4 8 11 19 44 41 45 52 50 54 53 44 42 48 59 70 56 16 16 9
77 73 60 44 32 25 20 16 8 8 7 7 5 4 3 3 4 8 12 34 53 51 60 57 65 67 65 59 57 61 58 54 49 52 71 65 25 18
70 59 41 33 27 20 13 9 8 7 6 4 3 3 4 7 12 37 51 66 66 73 74 70 71 70 65 51 53 61 70 75 69 75 60 76 78 56
54 38 34 25 19 14 9 8 6 6 4 3 4 5 9 28 56 64 65 72 84 62 73 87 76 83 78 76 80 79 80 83 88 97 94 70 76 93
38 35 27 23 16 11 8 7 7 4 4 5 6 9 33 56 60 68 66 71 84 78 64 94 82 87 80 64 52 78 92 98 96 92 86 81 55 62
38 30 26 17 12 10 8 5 4 6 6 7 11 36 49 56 63 73 79 76 79 75 62 88 82 86 46 23 50 71 84 94 98 98 91 76 85 55
32 24 18 14 10 8 5 3 5 6 9 14 50 63 59 62 59 64 70 77 84 81 58 81 76 54 17 17 25 34 35 37 43 27 22 27 54 62
24 18 13 10 8 4 3 5 6 10 16 61 68 64 62 61 59 61 59 42 33 68 75 81 81 33 20 16 32 53 76 79 91 92 85 83 77 47
17 12 10 8 4 4 6 6 10 20 67 79 80 76 70 69 55 43 26 17 15 17 76 92 66 18 34 54 73 83 100 100 95 89 94 94 97 83
13 12 8 4 4 6 7 11 28 70 76 82 85 81 49 57 23 21 18 14 15 12 53 80 40 26 55 74 100 100 100 57 45 30 38 42 93 97
13 7 4 5 7 7 13 42 76 77 78 69 49 21 18 20 26 27 22 19 15 12 58 87 28 43 62 84 89 83 100 55 37 25 16 12 14 16
7 4 6 8 8 17 59 73 72 46 24 18 18 21 25 26 27 28 25 22 19 12 45 97 29 54 64 79 67 38 59 65 95 76 39 12 8 7
4 5 8 8 24 65 58 30 21 25 36 45 44 49 57 68 66 52 35 30 19 16 49 100 34 62 92 96 72 67 67 95 100 100 100 51 8 7
5 7 9 39 66 38 29 35 44 49 48 47 51 57 61 65 58 46 39 28 20 20 97 96 36 70 89 88 100 93 90 100 100 91 100 100 27 7
7 10 48 41 30 33 37 42 35 37 35 35 32 27 36 50 55 42 32 25 22 22 96 100 65 57 98 97 100 72 87 100 100 97 98 100 77 22
11 48 31 28 26 26 28 28 26 24 26 29 27 31 63 56 43 47 45 44 31 27 96 100 78 61 100 95 100 52 87 90 100 96 99 100 100 86
41 28 26 24 23 20 18 18 21 25 27 31 53 67 59 62 64 64 59 55 41 34 95 100 82 62 100 99 86 65 73 87 87 85 84 96 99 100
28 25 23 20 19 19 24 32 40 53 65 71 64 66 70 75 74 59 53 48 41 43 100 100 76 73 100 92 93 95 55 72 50 58 61 76 84 83
26 24 22 22 23 25 27 33 39 45 52 56 62 64 64 67 69 58 43 48 42 44 100 100 65 83 100 100 100 82 54 60 43 54 59 53 50 53
24 24 26 31 35 35 35 34 37 42 46 49 52 56 63 69 66 62 54 42 43 51 99 98 77 84 100 100 100 100 56 52 48 46 55 45 38 38

GFSNE_500_rhum_042.txt.gz
RH
46 45 63 71 62 56 50 54 53 47 48 44 33 27 23 21 20 20 19 15 10 7 5 3 2 2 2 3 3 3 3 3 3 3 3 3 2 2
54 73 76 60 57 57 60 61 59 51 40 32 28 25 23 20 14 10 8 6 4 3 2 3 3 4 7 15 28 38 44 41 38 33 29 24 17 10
83 76 57 60 64 64 63 60 47 37 34 33 29 22 12 10 10 8 5 2 3 4 6 9 20 30 36 45 46 42 41 43 44 46 43 37 31 27
64 60 64 67 66 65 58 45 39 37 34 21 14 12 12 11 9 4 3 5 7 20 48 40 47 56 62 58 55 56 58 57 57 56 55 56 53 44
68 65 70 68 65 57 44 43 39 25 18 14 13 14 12 7 3 4 6 12 45 51 59 55 61 60 58 54 49 49 55 62 65 65 67 69 68 57
68 72 71 67 56 46 46 37 26 18 14 15 15 10 5 3 4 7 19 53 56 65 68 63 58 63 66 52 55 58 57 41 26 34 51 70 74 74
74 73 67 55 50 50 37 25 18 15 16 12 8 4 4 5 12 26 51 57 81 67 68 82 68 77 65 66 66 64 28 16 20 40 69 77 82 84
73 67 56 56 50 33 22 19 16 15 10 7 4 5 6 18 54 60 57 63 73 85 60 84 79 84 70 64 64 18 16 14 23 44 60 80 84 94
64 62 61 42 27 22 19 17 14 8 5 5 5 8 18 59 58 68 68 65 69 66 51 38 60 78 75 65 30 16 15 25 43 51 48 41 30 22
68 54 32 25 20 20 16 14 10 5 6 6 10 24 57 58 60 57 56 62 44 30 32 17 18 49 82 62 18 28 60 68 74 81 80 78 76 67
39 31 24 19 17 16 14 10 5 6 8 17 48 60 59 58 49 43 22 19 16 24 13 14 12 35 94 34 30 55 78 82 67 47 28 20 33 83
30 23 20 16 15 13 8 5 6 11 39 78 73 67 59 32 19 12 12 13 16 22 17 16 13 30 84 31 58 79 100 80 50 60 66 30 13 9
21 18 14 14 12 5 5 6 17 55 71 60 44 20 17 17 19 25 32 34 35 34 28 20 15 77 46 56 86 100 83 58 76 98 98 91 67 19
17 15 15 9 4 6 7 29 58 41 27 25 28 34 43 47 48 52 57 61 58 50 37 22 17 86 39 60 74 91 94 79 99 100 95 97 93 26
15 13 6 5 6 10 45 43 26 28 29 32 36 40 40 38 39 44 59 56 54 42 35 19 20 95 38 65 77 83 57 99 99 95 94 96 100 50
10 4 5 6 20 44 26 21 22 23 24 25 27 32 33 33 30 28 55 57 43 37 25 18 28 96 56 87 83 79 73 88 100 92 90 98 100 88
4 5 8 35 39 24 22 20 18 17 17 17 19 26 32 30 34 52 48 40 32 34 33 20 44 90 52 80 100 82 79 100 100 100 94 90 99 100
5 12 40 27 23 22 20 20 20 25 27 27 26 31 44 62 68 66 63 57 52 40 32 28 93 96 55 74 88 94 84 100 100 84 89 87 97 100
15 39 25 23 21 22 23 24 26 30 39 53 59 63 67 72 75 73 68 54 54 40 34 52 100 95 84 100 99 86 79 84 79 78 77 86 82 84
31 25 22 21 22 27 31 31 33 38 44 49 55 63 68 62 60 64 64 46 48 47 36 93 100 71 89 100 100 93 66 60 63 67 68 58 76 100
26 21 20 19 20 26 34 43 53 57 52 51 52 54 54 56 65 63 60 49 45 42 55 100 99 56 99 100 100 68 56 45 56 56 60 57 63 95
22 18 16 16 20 27 39 49 57 65 72 78 83 84 82 77 70 64 58 58 47 44 94 100 78 68 100 100 100 86 54 44 53 57 52 57 51 83
19 16 17 20 23 30 40 46 54 71 89 91 96 100 98 90 76 66 57 53 54 48 98 100 72 82 100 100 100 100 58 42 48 54 44 38 38 100

GFSNE_500_rhum_045.txt.gz
RH
44 55 58 57 53 61 70 63 48 30 48 54 47 44 40 40 39 32 27 25 20 16 15 12 7 4 4 2 3 3 4 4 4 4 4 3 3 3
64 69 60 56 71 71 56 45 58 58 47 47 43 43 42 37 31 28 21 16 15 10 6 5 4 3 3 6 23 34 35 34 36 37 36 32 26 20
76 59 68 76 67 54 56 65 60 53 45 46 47 45 36 28 20 17 12 9 8 6 4 4 4 9 27 32 49 53 52 53 54 54 54 55 56 52
64 78 81 65 59 64 68 60 54 51 48 43 35 24 16 12 8 6 7 7 5 4 5 9 31 35 50 49 50 52 53 56 59 61 58 52 46 43
86 81 64 65 71 68 59 56 54 50 37 24 9 6 6 6 6 7 6 4 5 8 19 46 38 56 59 55 56 54 54 56 62 61 58 53 49 48
73 68 70 75 67 61 57 54 42 31 19 8 7 6 6 7 5 4 4 6 26 50 53 51 45 64 67 60 57 55 54 55 52 30 14 15 15 13
71 76 74 66 63 59 48 37 32 20 10 7 6 6 7 4 4 5 8 45 67 72 56 85 56 68 66 60 54 58 62 62 46 15 14 15 13 12
81 70 69 65 56 41 35 20 10 9 7 7 7 5 4 4 6 13 48 58 70 94 56 77 61 57 45 32 33 35 61 69 18 21 32 42 46 44
69 72 64 49 41 33 14 11 9 7 9 6 4 4 5 14 33 48 62 64 63 66 44 35 28 21 19 16 16 15 54 38 36 50 66 58 33 24
72 60 47 40 24 10 7 7 6 8 4 4 5 10 37 50 46 46 50 27 19 15 16 16 16 15 17 13 11 12 63 39 67 43 36 41 60 64
56 48 34 17 11 8 7 6 5 3 4 7 28 50 43 28 20 17 18 22 25 28 31 29 32 29 26 19 14 32 45 56 63 45 57 75 70 68
45 28 19 11 8 7 6 4 3 4 14 47 47 25 23 24 24 22 18 21 30 40 40 24 44 36 35 26 31 68 42 74 78 71 78 85 93 86
24 18 12 9 8 6 4 4 9 32 38 25 26 24 23 22 23 26 27 26 24 27 27 24 44 43 36 30 95 77 55 96 71 83 84 91 91 93
16 12 11 8 5 4 6 25 33 22 22 20 18 17 16 17 19 24 36 38 35 25 28 37 36 32 21 39 97 74 91 95 65 78 88 96 100 100
12 12 9 5 4 11 31 22 21 20 19 18 18 19 20 21 21 26 37 34 46 43 32 26 23 23 20 92 68 83 86 100 78 83 97 96 93 98
12 9 5 4 18 28 22 20 19 21 21 22 22 24 28 31 34 40 56 60 60 68 50 31 26 21 49 90 54 82 84 68 87 92 87 84 91 95
8 4 5 24 25 22 18 16 23 32 33 30 29 38 48 54 61 59 67 69 64 52 51 49 36 22 82 64 82 82 72 86 75 77 75 81 85 88
4 5 26 24 19 14 14 17 20 27 40 52 44 46 55 61 69 69 58 53 54 46 41 45 37 57 88 49 64 73 73 80 75 73 68 73 78 96
5 27 24 17 12 13 18 23 28 33 36 45 66 73 67 62 59 59 57 57 60 50 42 38 67 100 94 65 72 60 77 68 69 58 66 71 83 99
26 26 17 12 15 19 23 28 33 42 51 60 70 82 92 90 87 88 77 63 58 52 46 48 100 99 58 92 100 100 62 54 48 53 63 66 80 98
27 19 12 14 20 24 29 35 51 65 76 83 92 97 99 99 100 95 80 68 54 49 54 98 100 72 97 98 100 85 50 38 45 46 49 42 68 100
22 16 14 17 23 30 39 54 89 99 95 98 100 100 100 95 94 86 73 68 57 50 79 100 90 90 100 98 100 84 44 42 43 42 42 47 91 100
20 16 18 20 26 36 57 76 100 100 98 100 100 100 100 98 89 75 61 57 52 46 90 100 76 97 96 95 97 97 49 38 38 42 42 51 94 100

GFSNE_500_rhum_048.txt.gz
RH
40 46 47 49 70 74 64 60 59 52 45 44 55 58 53 48 44 42 34 21 14 11 7 6 5 4 4 3 3 3 3 2 3 3 3 4 5 5
51 50 58 79 80 66 69 75 62 36 27 52 52 48 45 42 36 27 18 10 7 6 5 4 4 3 3 2 2 3 6 21 34 33 35 39 41 41
53 72 85 80 69 80 80 53 53 66 56 52 47 42 35 23 14 8 6 6 6 5 4 4 3 2 3 3 7 26 35 50 55 60 60 60 58 54
84 88 82 73 88 74 53 70 69 61 52 45 41 34 13 9 8 7 6 6 4 4 3 3 4 5 22 24 33 40 55 58 59 61 63 57 53 56
93 81 83 90 64 66 74 64 59 54 49 41 31 10 8 7 7 6 5 4 3 3 4 7 26 47 49 49 42 48 57 63 64 65 64 64 64 60
84 94 81 67 72 72 64 58 55 47 38 19 11 10 7 6 5 4 3 3 4 8 13 47 47 51 59 59 48 52 55 58 56 58 61 58 56 23
95 72 70 74 67 61 55 52 46 29 17 12 8 6 5 5 4 3 3 5 24 47 41 65 50 56 54 48 50 43 39 37 30 27 37 54 44 18
74 76 72 66 58 56 51 34 20 14 9 7 6 5 5 4 3 5 23 41 48 74 49 57 42 33 35 26 28 30 21 18 15 15 16 48 31 29
79 68 61 58 56 42 24 14 9 7 6 5 5 5 4 8 24 33 34 23 22 22 16 17 17 19 17 18 16 16 15 13 12 12 35 42 35 29
65 56 55 50 30 19 11 9 8 7 6 5 5 10 23 25 16 12 13 12 22 29 22 10 26 32 35 40 33 26 26 26 19 24 49 50 43 35
58 56 39 25 19 13 10 8 7 6 4 8 23 22 15 15 14 11 12 12 13 26 39 12 28 26 31 47 34 24 27 29 22 58 49 59 44 59
45 31 26 20 16 11 8 7 6 5 16 24 20 19 17 18 17 16 14 14 15 17 44 26 39 29 26 54 43 30 30 28 41 54 58 58 60 63
28 24 19 15 9 7 6 4 7 22 18 16 15 19 22 22 21 21 21 19 20 22 28 29 34 36 29 34 43 33 31 33 68 54 73 70 72 80
18 14 10 9 7 6 4 11 23 16 11 12 16 26 35 32 31 35 42 40 47 37 47 47 38 34 29 24 28 36 30 81 66 80 86 81 97 91
13 10 8 8 6 4 17 21 12 12 18 21 26 27 33 45 42 46 60 62 76 67 57 45 37 35 30 22 24 82 98 86 79 81 75 94 92 86
10 9 8 6 4 21 19 11 17 24 29 35 41 47 45 49 60 54 56 61 59 57 53 48 42 35 30 25 60 100 76 100 100 90 84 90 80 74
9 9 6 5 24 18 12 18 27 35 46 52 59 67 67 72 88 84 76 61 55 54 61 60 47 35 26 61 99 70 98 88 70 64 58 62 74 73
11 7 5 24 19 12 20 28 35 42 59 81 90 86 81 85 95 100 100 89 79 70 58 53 45 45 73 89 61 96 74 62 72 57 49 52 65 72
7 6 24 22 12 18 25 31 41 56 85 96 91 87 85 89 90 96 98 99 90 73 60 49 61 100 100 91 63 44 60 71 53 45 52 53 54 56
6 25 24 14 14 21 27 36 54 86 100 97 96 94 92 87 87 89 87 88 75 68 64 58 100 100 73 86 96 67 36 38 42 49 50 51 56 99
22 27 17 15 20 25 32 50 83 96 97 99 99 100 100 99 93 85 73 72 61 54 54 98 100 70 99 100 100 95 79 36 44 44 42 47 87 100
30 20 17 18 23 31 50 74 90 94 100 97 100 100 100 100 90 77 63 62 56 51 82 100 80 99 100 100 94 93 91 56 36 35 38 40 81 100
22 20 22 24 32 51 68 72 78 88 95 86 94 100 100 100 86 61 48 46 48 55 100 89 94 100 100 100 91 83 53 39 36 38 37 36 92 100

GFSNE_500_rhum_051.txt.gz
RH
100 90 100 92 63 49 51 64 67 59 56 77 60 55 63 58 53 47 42 39 37 33 21 15 13 14 13 10 8 6 5 4 3 3 3 2 2 2
87 89 99 76 60 68 82 79 70 61 49 40 48 54 53 52 45 42 39 33 25 18 13 11 10 9 7 5 4 3 3 2 2 3 4 4 8 12
81 100 91 64 83 90 87 78 80 57 42 52 48 48 42 39 38 27 13 8 7 6 6 6 6 4 4 3 2 3 4 15 18 18 39 40 44 48
93 97 68 85 97 94 89 82 56 66 60 52 45 42 36 21 10 9 8 8 7 6 4 3 4 3 3 4 10 33 38 43 46 42 50 68 62 52
98 71 92 100 99 94 69 69 71 63 54 46 38 23 14 9 9 9 8 6 6 5 4 4 4 6 15 23 34 40 43 55 54 50 66 68 69 64
73 97 100 99 86 70 75 68 59 53 48 31 19 15 12 10 8 7 6 4 4 6 10 21 34 41 40 38 46 42 41 44 56 60 61 59 51 50
100 99 96 71 75 73 63 52 49 38 24 19 15 12 9 8 7 5 4 6 19 27 30 31 27 24 22 24 32 35 35 34 34 37 39 26 28 24
100 82 72 80 68 57 54 44 30 24 19 12 9 9 9 8 4 5 11 16 14 20 13 13 18 15 20 20 20 17 16 19 20 19 19 16 13 13
72 81 73 62 56 52 37 28 18 12 10 10 10 9 6 5 10 15 13 11 13 14 12 10 14 15 25 29 25 18 14 14 20 24 23 22 18 15
76 65 56 55 43 31 23 16 13 11 10 9 7 5 10 17 14 13 11 9 12 18 16 9 14 14 22 45 37 29 21 16 16 16 20 26 27 22
58 59 48 34 28 20 16 14 11 10 8 6 7 17 14 12 11 11 12 15 25 26 24 18 19 17 22 53 47 38 25 20 19 23 28 31 28 27
55 41 32 25 19 16 13 12 9 8 6 14 16 13 18 24 28 31 30 23 33 32 33 30 40 33 37 65 72 48 32 25 25 29 32 31 32 54
37 30 22 19 15 12 10 9 7 6 19 12 16 27 36 42 52 52 48 40 45 49 49 48 57 60 51 43 76 64 40 23 22 28 33 53 60 62
27 22 16 13 12 10 8 6 7 19 12 22 33 45 56 67 74 74 70 62 70 65 58 55 44 43 46 44 39 53 32 19 20 23 64 59 67 66
18 14 12 10 9 8 5 10 18 13 25 35 44 49 69 90 95 90 86 81 88 96 81 60 50 47 51 43 37 37 30 22 25 69 66 83 91 81
15 12 11 11 7 5 15 18 14 26 32 37 53 73 95 99 100 98 87 86 87 100 100 81 66 58 52 41 34 29 22 38 73 67 78 90 84 64
13 12 11 6 5 17 19 13 22 28 35 52 81 99 100 100 100 100 93 87 76 75 91 86 68 58 50 43 91 49 86 84 90 100 87 89 91 72
11 10 5 6 20 20 13 20 26 37 59 85 99 100 100 99 98 100 95 88 71 70 73 60 56 62 99 93 71 78 95 100 100 99 74 53 58 58
8 5 6 23 20 14 20 27 44 63 73 82 89 84 87 100 100 92 85 76 64 69 64 47 64 100 100 100 57 80 99 95 90 78 43 49 46 51
5 7 26 21 16 20 30 49 59 62 65 66 68 84 94 96 98 88 75 57 59 64 58 64 100 92 68 91 100 95 45 52 47 42 44 46 42 43
7 28 22 18 22 32 49 54 55 57 54 74 81 56 64 81 80 61 49 47 50 46 73 100 84 91 100 100 100 100 86 31 31 37 39 35 36 39
30 23 20 24 35 51 54 58 54 54 86 92 43 31 33 36 37 36 39 42 44 75 89 82 100 100 100 100 100 100 98 83 51 37 30 29 37 58
24 23 24 37 52 53 60 57 49 81 93 96 41 25 25 26 29 32 36 51 83 81 90 100 100 99 99 93 75 68 56 54 44 50 57 87 100 100

GFSNE_500_rhum_054.txt.gz
RH
73 73 65 93 91 78 67 75 74 53 59 100 98 98 85 60 55 52 46 45 39 34 33 26 21 18 15 13 10 8 6 6 4 4 4 3 3 3
78 72 75 99 84 75 74 83 63 69 72 81 88 75 57 62 55 51 43 37 33 24 18 15 12 10 9 8 6 5 4 3 2 3 3 3 3 2
69 66 100 93 86 74 92 71 77 86 81 81 62 49 50 50 46 41 33 23 16 12 11 10 9 8 6 5 4 3 3 3 3 3 3 7 19 27
71 97 96 86 77 90 84 82 90 94 81 52 50 51 47 42 35 24 17 13 13 11 9 5 4 4 4 4 4 6 8 8 9 18 34 35 37 46
79 99 91 85 92 84 92 92 92 70 64 55 50 44 39 28 21 17 14 12 8 5 4 5 5 5 7 15 20 24 28 28 31 35 44 44 57 56
98 81 85 93 94 97 99 82 67 66 62 51 43 32 25 19 15 10 6 5 6 6 5 5 10 13 12 12 10 10 10 14 19 29 48 50 50 56
87 88 92 98 100 88 64 66 64 55 47 35 28 21 16 13 10 7 6 6 5 10 12 13 14 12 12 13 12 11 9 8 7 11 19 31 40 39
96 84 93 95 62 65 66 60 51 42 32 25 18 14 11 8 7 7 6 6 15 13 11 9 8 10 16 16 16 14 12 11 10 9 12 16 16 20
92 94 64 64 67 65 55 49 37 29 22 18 13 11 9 8 6 6 13 14 14 16 15 10 15 18 24 25 22 19 16 14 12 12 14 18 24 24
64 62 67 70 59 54 43 33 25 20 14 14 10 9 7 5 11 14 16 17 19 28 36 20 28 26 35 37 30 23 21 18 16 16 21 26 25 21
67 70 58 54 48 38 29 20 16 15 12 10 8 5 8 15 15 22 25 31 40 48 70 43 45 38 50 67 68 65 46 33 29 29 32 35 30 24
58 56 50 39 32 22 18 16 14 12 10 6 5 15 15 22 32 38 46 53 65 64 83 61 56 52 49 66 82 92 72 49 33 31 30 29 32 32
55 44 35 25 22 19 17 15 12 9 5 8 18 15 29 33 36 47 64 80 89 91 93 72 49 54 60 52 51 60 62 49 36 29 22 21 25 30
35 27 23 18 15 14 11 9 6 4 13 17 17 26 30 37 52 78 100 100 100 97 86 67 47 50 65 65 53 56 60 50 36 31 21 21 24 27
24 18 14 12 10 9 8 4 5 17 15 17 24 33 50 74 100 100 100 100 100 98 84 66 53 56 71 63 49 54 46 44 27 18 20 54 76 69
18 16 13 11 9 6 4 8 21 13 17 28 44 57 64 64 76 86 89 90 91 94 100 72 53 67 74 64 54 88 83 50 29 31 73 83 78 81
15 12 10 8 4 5 15 19 15 24 37 47 49 45 54 67 75 70 73 88 89 81 82 69 71 71 65 78 88 98 100 86 88 84 71 80 75 66
13 10 6 4 7 23 16 20 30 42 44 38 52 55 31 27 40 66 70 69 68 64 58 61 62 72 99 96 64 93 90 97 98 84 70 64 92 83
7 3 4 11 26 16 25 36 45 40 38 64 59 21 21 24 27 33 41 46 52 57 52 68 100 100 100 100 79 75 97 97 100 100 83 62 48 67
3 6 17 23 18 30 39 44 39 41 64 76 52 22 23 24 28 32 37 43 49 57 81 96 99 100 100 100 100 100 73 60 63 74 68 56 42 43
7 25 21 22 36 44 44 41 38 61 75 80 83 45 25 28 35 44 55 68 82 92 100 100 100 100 100 100 100 100 100 63 42 32 30 31 33 38
30 21 24 42 50 46 47 45 40 67 80 87 90 87 73 64 66 69 75 87 99 100 98 99 100 100 100 100 100 100 94 83 60 46 44 44 64 86
23 24 37 50 45 44 55 54 41 55 84 90 92 82 76 76 69 74 91 99 99 100 100 100 100 100 100 100 94 99 100 100 100 100 99 91 94 94

GFSNE_500_rhum_057.txt.gz
RH
54 44 39 49 42 58 63 67 91 85 66 92 100 94 86 88 85 80 68 47 41 39 40 36 33 30 25 20 16 13 12 9 6 5 4 4 3 3
51 40 43 62 45 60 81 81 100 79 56 70 88 85 88 88 81 60 51 48 46 41 37 32 25 19 14 9 6 4 4 4 4 3 3 3 2 2
45 46 98 78 52 79 79 88 100 92 79 84 76 80 81 71 57 53 52 45 39 33 25 18 13 8 5 5 5 4 3 3 3 3 3 3 3 3
89 48 44 76 89 99 96 98 90 92 81 75 78 75 54 55 56 50 42 36 27 21 15 9 6 6 6 5 5 4 3 4 5 8 9 14 18 20
66 52 75 97 87 96 100 98 98 93 89 77 60 58 62 55 47 40 30 23 18 13 10 8 6 6 5 4 5 8 11 12 12 12 11 9 9 22
69 58 84 100 100 100 98 99 95 91 67 65 64 60 52 43 32 25 18 14 11 10 8 6 5 5 8 12 11 9 9 7 6 6 6 11 10 9
96 54 100 100 100 100 99 97 69 65 67 64 54 47 37 28 19 14 12 10 9 8 5 5 7 13 12 13 18 20 17 13 10 8 8 10 13 13
65 100 98 98 99 98 79 64 63 64 56 50 38 27 18 16 14 12 9 7 5 6 9 14 17 16 26 35 41 36 29 26 20 19 20 18 16 15
99 98 99 99 77 63 62 64 57 52 38 27 21 19 15 12 8 6 4 4 7 14 17 19 26 34 48 61 64 56 50 40 34 33 26 21 20 18
100 90 75 54 60 63 56 52 38 30 24 23 19 14 10 9 6 4 6 13 15 22 33 30 38 50 65 76 77 70 62 53 53 42 46 44 29 25
75 55 60 61 55 53 38 31 27 23 19 14 12 10 7 4 6 14 16 20 25 30 41 45 61 74 77 72 76 79 87 78 68 46 38 42 52 55
67 58 49 45 36 32 29 25 21 18 15 12 7 4 6 15 16 18 24 31 44 51 91 77 84 79 64 59 66 91 100 100 82 59 45 38 36 43
51 41 33 32 29 25 23 20 17 14 12 6 5 15 16 16 29 44 53 48 48 61 92 83 76 77 63 50 57 76 100 100 80 61 49 38 34 31
31 30 27 26 24 21 17 14 11 7 4 11 17 16 26 42 45 39 41 38 38 44 71 82 70 76 68 60 59 86 90 74 63 59 50 39 30 27
29 28 26 20 14 10 8 5 3 8 18 17 26 34 35 42 31 17 18 23 48 63 64 61 59 59 59 62 49 59 54 71 81 40 27 28 28 23
24 17 11 8 6 4 3 5 17 17 21 31 32 40 49 18 17 16 21 25 34 49 47 46 53 55 59 70 93 100 100 100 86 73 81 92 85 79
6 4 4 5 4 3 12 19 18 29 32 30 45 59 22 18 18 20 28 36 43 50 57 65 80 92 93 79 90 100 100 98 94 92 80 81 79 78
4 4 5 3 6 20 19 26 34 35 33 51 58 64 39 28 31 39 49 57 69 80 91 100 100 100 98 89 59 77 99 100 94 87 65 75 96 71
5 4 3 14 20 27 36 38 39 36 51 62 70 68 64 55 54 59 65 74 89 92 89 93 100 100 100 100 100 68 54 80 100 100 91 66 67 95
3 7 22 20 32 38 38 43 44 40 61 72 77 73 64 59 60 64 79 92 100 100 100 100 100 100 100 100 100 100 88 68 72 78 82 84 58 49
13 21 18 29 38 38 40 44 53 43 52 76 80 66 61 61 63 75 96 99 100 100 100 100 100 99 98 100 100 100 100 96 87 76 70 61 54 66
21 18 22 33 40 38 34 39 54 55 44 58 80 80 65 54 65 84 98 100 100 100 100 100 100 99 100 100 100 100 100 100 97 92 86 79 79 88
23 17 24 33 38 38 36 33 42 58 53 42 58 83 82 73 82 99 100 100 98 100 100 100 100 100 100 100 100 100 100 98 98 100 100 100 96 100

GFSNE_500_rhum_060.txt.gz
RH
100 97 95 99 95 95 91 61 56 58 50 89 95 85 87 88 81 75 76 71 65 61 56 49 50 51 49 42 37 33 28 22 17 12 8 5 5 5
97 92 92 97 97 80 77 77 99 97 56 82 92 100 100 99 98 92 85 71 59 55 58 58 52 45 40 34 27 22 17 12 8 6 6 6 6 6
85 93 91 98 83 57 68 98 58 93 93 91 96 100 98 90 91 84 66 61 62 62 55 47 40 32 25 20 15 10 8 8 8 8 7 6 6 5
87 79 100 93 59 91 99 52 60 86 94 95 94 85 87 91 72 68 67 66 56 48 39 30 23 16 13 10 9 9 9 8 6 5 4 4 4 5
88 96 95 96 72 85 97 67 66 96 99 91 88 86 76 75 70 65 56 47 34 25 20 17 13 10 9 9 8 6 5 4 5 6 9 10 10 9
98 94 65 96 84 97 98 94 89 100 100 93 81 69 71 65 56 47 34 26 22 18 13 12 11 9 6 5 5 5 8 12 14 12 10 11 14 16
95 77 93 99 100 99 99 100 99 99 97 76 72 65 54 44 32 27 24 20 16 14 10 6 5 4 5 8 12 16 17 18 18 20 21 26 27 23
92 99 98 97 100 100 97 97 74 73 74 64 52 40 31 29 25 20 18 16 12 9 6 5 10 15 17 19 27 33 37 39 43 49 54 50 42 37
99 100 100 99 98 96 93 90 86 69 49 34 30 30 25 21 19 15 11 7 5 6 10 16 17 20 26 30 34 39 46 55 70 79 68 60 53 40
100 100 98 92 91 87 78 62 44 32 31 28 25 23 18 12 8 6 4 6 14 16 22 21 34 39 48 60 81 95 100 100 99 81 68 55 40 40
97 96 84 86 70 49 34 28 28 28 27 23 15 10 8 5 4 8 14 14 17 27 24 12 14 17 26 58 91 100 100 100 92 72 57 42 36 47
67 60 50 36 30 29 29 28 21 10 6 8 8 5 4 9 15 14 18 22 14 11 13 12 17 26 31 58 96 100 100 100 93 74 57 50 58 53
45 31 28 28 28 23 13 7 5 6 7 6 4 9 17 18 20 32 24 12 14 19 26 24 27 34 43 48 84 88 82 77 61 55 62 72 69 58
28 28 27 18 10 8 6 5 5 5 4 8 17 20 26 27 42 26 16 26 40 35 45 56 64 61 54 52 56 69 63 66 69 67 62 58 66 68
26 16 9 7 5 4 5 4 4 11 18 25 32 31 30 48 47 26 35 46 52 52 46 50 57 72 77 91 98 99 88 100 78 82 93 100 71 29
10 7 6 4 5 5 3 11 19 25 34 34 33 46 54 54 50 41 45 48 57 74 75 74 70 71 72 67 93 100 100 100 100 91 99 99 100 95
7 5 4 7 5 9 18 24 30 33 34 37 53 57 63 62 53 43 45 58 72 78 82 83 85 94 93 77 74 54 64 90 94 100 87 96 86 65
4 4 9 8 15 17 25 30 33 35 39 50 59 67 66 54 50 48 55 75 88 89 83 85 92 100 100 100 82 82 92 80 93 92 72 77 100 91
5 10 11 15 15 22 32 34 36 43 42 42 63 73 68 50 52 58 65 82 91 86 86 86 90 91 100 100 100 83 77 86 89 89 85 82 86 95
12 14 16 18 21 26 32 31 30 37 45 39 42 65 73 62 53 58 76 86 89 97 99 93 90 90 91 93 93 93 86 88 88 98 100 100 100 93
13 20 18 20 21 25 30 32 31 29 38 50 43 41 64 69 68 71 81 87 90 95 100 99 96 95 96 100 100 100 97 92 88 80 80 84 98 99
13 26 18 20 20 19 21 24 28 30 29 38 51 43 42 64 74 79 86 97 98 99 100 100 100 100 100 100 100 100 100 96 91 94 100 97 81 88
19 31 35 24 23 22 21 22 25 29 30 32 41 49 42 43 66 76 88 92 97 100 100 100 99 98 97 100 100 100 100 100 100 100 100 98 93 91

GFSNE_500_rhum_063.txt.gz
RH
92 92 92 98 96 99 92 93 78 99 99 78 68 97 98 93 81 83 72 74 73 75 68 69 65 60 59 59 56 53 48 46 42 38 35 32 29 26
91 93 96 100 94 87 95 86 79 88 96 81 91 90 88 71 98 92 82 85 79 76 72 64 63 60 58 53 47 43 40 36 31 27 23 20 17 15
89 91 92 99 95 84 79 89 90 98 98 99 100 96 73 69 86 90 94 93 83 72 68 63 56 52 44 37 29 24 21 19 18 15 13 12 11 10
70 87 99 98 80 82 81 85 92 98 75 70 87 96 99 93 96 99 95 83 69 67 60 49 39 31 27 23 20 18 16 16 14 12 11 11 11 11
51 61 73 70 98 82 98 99 94 81 95 100 95 99 100 100 100 96 78 69 57 47 38 31 27 22 20 18 14 9 8 8 8 8 7 5 4 4
66 91 96 90 98 99 98 89 100 97 99 98 96 100 100 96 86 71 54 42 35 31 26 22 20 14 10 8 6 5 5 5 6 7 8 10 12 13
89 100 99 94 87 72 80 87 98 98 99 96 99 94 90 79 53 34 29 26 25 23 16 9 8 5 4 6 9 13 14 15 16 16 16 16 18 20
69 87 99 91 97 98 98 99 99 97 96 93 77 54 37 30 29 26 21 14 8 8 6 4 6 12 18 20 21 22 27 38 34 24 26 28 28 28
100 86 83 80 97 98 100 99 93 85 66 39 30 29 25 18 13 8 8 8 6 5 6 10 15 14 10 12 12 9 10 14 35 79 78 57 46 44
92 99 98 98 98 97 90 46 36 33 29 25 19 13 9 7 6 6 5 4 10 14 12 11 16 20 25 23 16 11 12 16 30 68 100 100 100 100
95 99 99 91 67 44 30 28 20 12 8 6 4 4 4 4 4 4 10 13 13 22 15 29 41 33 47 44 40 34 28 25 31 45 68 83 81 75
97 78 47 33 30 26 17 10 8 5 4 4 5 4 4 7 14 14 11 20 28 23 25 29 46 42 48 68 64 47 50 53 47 46 49 50 51 49
36 30 30 26 15 10 7 4 4 4 6 5 5 14 16 16 14 18 33 41 32 33 33 36 52 57 59 64 94 66 64 69 76 88 92 92 92 88
33 29 17 11 9 6 4 4 5 7 9 16 16 18 20 24 39 48 45 46 36 36 50 58 60 58 60 69 78 89 98 86 80 92 100 100 91 76
25 13 10 8 6 4 5 7 10 14 17 19 24 31 43 48 49 55 46 42 42 50 56 62 62 70 78 85 82 84 81 100 96 92 100 99 96 89
13 10 8 6 4 7 9 11 12 20 23 27 36 52 56 57 49 44 44 47 56 66 64 66 68 74 90 88 76 72 71 73 79 82 95 100 90 77
10 8 5 4 9 13 12 14 20 24 27 31 36 45 59 63 52 44 44 50 58 77 89 82 71 84 95 80 85 75 76 88 80 82 88 100 100 73
8 6 5 8 16 15 12 15 21 26 27 27 34 37 44 62 66 55 52 61 72 81 76 76 81 92 100 99 83 88 93 95 99 99 100 100 100 100
8 5 6 13 19 17 17 20 21 25 27 25 26 36 37 47 59 60 56 64 79 84 81 80 86 88 93 100 92 80 92 97 100 97 100 100 100 100
6 6 9 14 22 19 20 19 18 17 18 24 24 27 35 37 46 57 61 71 82 89 90 86 92 95 97 99 100 100 89 88 95 96 95 88 84 90
8 7 14 18 28 28 22 21 21 21 21 21 23 23 28 33 35 44 56 65 72 80 94 99 96 93 92 96 99 100 95 80 83 83 83 87 99 100
8 8 22 24 32 38 42 34 26 26 28 28 25 24 24 31 35 34 44 59 74 83 93 97 98 96 96 99 100 99 91 86 81 78 69 62 63 84
7 9 28 29 33 42 44 42 42 40 41 40 38 35 26 28 34 33 33 45 64 73 79 98 100 100 96 98 100 94 90 89 99 100 100 93 88 80

GFSNE_500_rhum_066.txt.gz
RH
75 76 98 97 79 76 94 98 98 99 94 80 86 98 97 98 97 95 90 94 95 85 57 62 59 59 58 68 58 52 49 46 43 39 37 36 34 32
69 66 97 86 99 92 91 90 87 93 90 95 88 91 96 98 99 97 93 90 94 94 86 64 65 73 78 72 63 58 51 44 40 35 31 27 24 21
31 50 61 82 96 63 74 86 96 95 94 97 99 100 98 97 99 97 99 90 93 94 84 86 81 85 80 69 58 46 36 28 23 20 18 16 16 15
42 36 23 25 25 36 51 62 64 67 96 100 99 95 100 95 95 99 98 100 96 100 95 86 72 62 44 33 28 23 21 20 19 16 14 13 12 12
70 54 30 22 25 26 60 88 96 99 99 99 98 95 93 96 99 96 100 99 91 79 65 48 33 28 26 23 21 19 15 11 8 7 6 5 4 4
91 56 31 26 46 95 100 100 96 100 99 97 88 95 100 100 100 100 96 82 61 35 28 25 22 18 13 10 9 8 7 5 4 4 6 7 7 8
95 45 49 63 99 100 100 100 97 97 94 96 99 100 100 89 54 37 31 26 19 12 9 8 6 6 6 5 4 5 6 8 10 13 14 11 9 8
92 62 75 100 96 97 100 99 100 92 100 99 88 55 34 24 20 12 8 6 5 5 4 5 4 5 7 10 12 12 17 18 20 29 24 14 8 6
82 92 100 100 100 99 99 99 97 85 60 50 28 16 9 6 5 4 4 4 5 5 4 6 12 18 18 21 26 25 24 26 27 32 36 16 13 12
100 100 100 98 92 99 96 61 34 26 17 11 7 5 4 4 4 5 6 5 5 11 12 11 29 23 33 36 33 35 36 41 38 38 48 43 35 35
100 99 100 96 68 35 30 23 16 10 7 5 4 4 4 5 6 6 9 12 12 15 14 33 32 32 43 53 51 43 49 56 47 45 51 61 60 60
71 50 37 31 29 23 16 11 8 4 3 4 5 6 8 8 8 9 10 16 29 38 33 34 43 44 55 79 70 60 68 69 71 60 49 55 71 77
32 30 30 27 18 13 10 7 5 4 4 7 8 8 7 9 18 29 37 37 34 33 29 31 48 55 63 63 78 74 72 81 79 62 62 66 57 68
34 30 24 16 11 9 6 6 4 5 9 9 10 12 15 31 41 42 40 35 27 27 37 41 51 59 66 68 75 90 81 81 76 76 81 69 54 64
32 24 19 11 11 8 6 5 6 12 11 12 16 21 23 32 45 51 48 40 36 37 45 52 57 68 64 70 84 85 80 92 79 87 96 87 76 74
28 21 20 12 9 7 5 6 13 12 13 16 21 24 25 28 33 51 56 52 50 50 50 58 66 74 82 85 86 84 84 87 96 95 99 98 100 100
31 26 22 13 8 8 6 13 17 16 17 17 18 22 23 25 29 35 52 57 55 61 73 75 78 81 90 88 86 82 86 88 87 96 98 95 93 92
32 27 18 10 8 7 7 18 21 19 18 17 16 16 20 23 27 32 34 49 58 64 70 76 82 90 97 97 81 89 95 95 98 92 94 97 94 88
34 20 14 8 8 7 12 20 26 24 21 20 18 18 20 22 23 29 33 35 46 56 66 74 80 92 100 100 96 87 98 98 93 91 90 90 90 94
36 21 14 11 8 9 19 25 31 34 35 29 25 27 29 28 26 25 30 30 35 45 60 71 70 89 96 100 100 100 91 96 91 93 90 84 81 91
34 22 16 12 7 12 27 29 36 37 36 35 36 40 40 38 34 26 26 30 30 33 40 53 65 84 89 96 100 100 96 80 91 98 91 87 98 100
35 24 18 13 7 16 30 34 38 42 40 40 46 45 42 39 38 32 25 27 28 28 28 32 53 88 99 94 100 97 100 92 84 84 84 78 77 85
36 25 17 15 8 17 31 38 40 46 47 49 48 47 44 43 38 36 28 25 25 27 25 26 46 85 100 96 97 98 96 100 100 100 100 96 100 100

GFSNE_500_rhum_069.txt.gz
RH
55 51 48 56 74 81 80 84 98 93 99 99 98 84 94 95 82 98 82 84 80 80 100 97 93 97 86 84 78 78 69 67 63 57 55 49 53 51
43 54 49 53 62 73 96 77 91 98 99 95 51 61 61 76 58 99 91 95 93 100 96 95 92 85 81 83 80 75 68 62 60 62 61 53 49 45
62 62 56 46 41 59 85 73 74 74 77 97 43 54 65 64 72 78 95 98 96 94 92 85 89 85 87 86 90 90 89 78 66 49 37 30 26 23
71 68 63 66 62 48 41 88 60 35 38 45 40 82 100 94 100 99 99 98 91 94 81 85 94 97 100 92 72 49 38 26 22 20 19 18 16 15
56 72 75 72 73 72 58 49 43 31 26 40 94 97 96 100 99 99 97 95 100 98 86 69 54 40 26 19 15 11 9 7 6 5 5 5 5 5
40 51 62 78 79 82 74 68 37 28 53 85 99 100 100 98 100 100 98 91 76 48 23 13 8 6 5 4 4 4 4 4 4 4 4 4 6 8
51 54 60 73 91 98 75 39 49 76 100 100 100 100 98 97 81 48 32 18 7 6 5 4 4 4 4 4 4 4 4 4 6 10 15 17 18 20
77 100 100 100 100 99 77 69 96 100 100 99 98 92 44 12 6 5 4 4 4 4 4 4 4 5 5 5 6 7 11 18 20 19 22 30 38 40
100 100 100 100 100 91 100 100 100 98 78 37 16 9 6 5 5 4 4 4 4 5 5 6 8 9 10 12 18 28 25 20 23 33 39 41 44 49
100 100 99 100 100 100 98 88 39 22 12 11 7 5 5 4 4 5 6 6 6 7 6 8 18 27 36 39 33 30 27 32 37 41 51 54 56 54
100 100 99 96 73 39 32 25 15 12 9 7 6 6 5 5 8 7 6 9 19 32 29 32 32 26 38 38 39 41 39 37 39 49 54 54 47 40
82 63 42 35 33 28 21 14 11 11 9 7 7 5 6 8 8 8 12 30 33 33 27 28 35 28 34 52 59 55 47 45 54 62 60 60 58 54
37 38 36 32 27 22 18 11 11 11 10 8 5 7 10 8 8 14 18 34 38 38 29 25 35 44 48 54 75 66 54 68 76 73 64 64 64 68
41 38 33 31 26 23 21 15 10 12 9 5 6 11 10 11 12 18 21 25 38 38 36 28 38 50 61 66 78 87 78 84 78 76 75 76 82 86
43 38 35 33 31 28 23 14 10 8 5 6 13 16 16 15 14 15 18 22 27 41 41 41 48 63 72 72 77 85 84 93 73 75 83 84 84 85
42 41 39 36 34 29 18 11 9 6 7 12 20 20 18 18 18 16 16 20 26 31 41 47 53 65 72 73 80 85 83 82 93 90 90 90 83 84
49 49 44 41 37 26 20 14 9 7 9 21 26 26 24 22 20 18 17 22 23 30 34 41 49 63 74 82 92 81 82 98 96 95 83 81 72 78
54 54 48 44 39 25 19 13 10 8 16 28 33 37 37 32 31 30 25 24 23 28 31 32 38 54 66 93 86 93 88 95 97 86 70 74 84 70
61 59 54 49 38 27 21 15 9 11 24 29 36 38 37 38 38 40 37 32 29 26 30 30 29 37 48 71 99 83 87 100 100 95 79 85 85 85
63 60 58 52 38 27 19 16 9 12 28 33 37 42 40 44 46 43 39 34 31 26 27 29 26 25 36 63 100 100 96 96 96 96 88 89 86 96
61 62 60 56 41 28 21 20 10 13 29 36 38 46 51 49 47 43 40 38 32 25 23 25 24 20 25 43 100 100 100 99 92 97 97 89 93 100
62 63 59 59 46 35 26 20 10 14 31 38 42 54 53 57 48 36 35 34 33 30 24 23 22 22 22 46 98 99 100 100 94 96 100 90 92 99
63 63 62 64 55 40 27 16 10 18 34 40 48 58 59 61 56 42 39 36 32 30 24 21 24 21 21 54 94 97 95 100 97 100 100 99 96 90

GFSNE_500_rhum_072.txt.gz
RH
55 62 60 56 68 74 80 84 75 75 83 72 63 99 96 96 98 98 83 51 40 51 54 45 94 93 82 80 85 81 79 87 85 71 68 65 61 60
70 72 76 82 81 81 75 66 56 63 65 82 86 88 97 100 98 99 90 75 43 66 80 91 93 95 99 94 83 75 76 79 70 71 74 70 68 60
43 41 81 86 79 85 86 86 81 64 60 53 98 98 99 98 98 87 41 41 62 90 84 94 97 92 92 95 92 86 80 74 73 70 76 80 85 80
33 44 64 100 100 100 91 81 80 77 71 62 59 100 99 96 52 31 33 94 99 98 98 94 90 96 93 91 90 66 42 32 33 33 28 21 17 13
65 64 65 66 82 90 99 99 93 91 82 100 90 68 67 54 29 49 87 100 100 96 91 78 50 37 23 14 14 15 12 10 6 6 5 5 5 4
83 78 96 79 59 40 36 51 59 76 85 95 94 76 47 38 70 96 100 97 90 69 43 22 15 6 5 5 5 4 4 4 4 4 4 4 4 4
41 54 84 83 63 47 99 92 92 100 100 100 92 80 91 100 97 70 28 6 5 6 6 5 4 4 4 4 4 4 4 5 5 5 6 8 14 19
76 56 57 71 96 100 80 85 100 100 100 100 100 99 92 47 15 6 6 7 6 6 5 4 4 5 5 6 5 6 6 6 7 10 23 24 23 25
66 86 94 95 100 100 98 100 100 100 98 68 21 14 9 7 8 9 8 7 5 5 5 7 7 11 15 20 18 21 22 22 24 24 26 32 36 38
68 80 95 100 100 100 97 91 74 42 21 14 11 10 11 11 10 8 7 6 7 7 7 16 26 30 31 24 21 22 22 22 24 32 41 41 42 48
83 84 79 74 64 48 40 30 23 18 12 10 10 10 12 10 8 7 7 8 9 10 10 29 31 30 35 29 30 32 34 37 40 43 40 41 51 58
37 38 41 41 39 35 31 27 23 23 18 16 10 10 11 8 6 8 11 12 11 12 14 26 40 33 46 50 49 45 50 46 46 54 61 63 62 56
40 42 43 40 36 33 32 31 30 29 22 11 9 10 10 7 8 13 16 14 14 14 12 17 33 46 43 42 70 59 61 61 70 78 76 71 67 62
38 39 39 39 41 41 40 38 35 27 20 16 13 11 8 7 13 20 20 19 18 16 13 15 22 35 42 49 63 75 74 76 83 81 78 74 70 70
40 40 42 43 46 48 45 42 40 30 21 17 13 11 8 10 19 26 27 26 22 18 15 14 20 27 38 47 63 69 71 94 79 77 82 86 84 78
43 44 46 50 53 55 51 47 40 28 24 20 12 9 10 15 23 27 28 28 31 32 25 19 20 24 30 36 52 62 65 73 94 90 92 94 80 63
45 47 50 52 54 54 54 52 43 32 23 18 13 10 12 23 29 32 29 32 37 40 41 34 24 24 26 26 34 54 64 77 83 92 86 90 82 54
44 44 45 48 52 54 56 55 43 34 24 24 20 12 18 30 35 39 35 39 44 43 40 36 29 23 24 25 28 43 70 81 92 100 87 80 82 69
44 41 41 47 53 57 57 57 53 46 33 27 17 12 20 33 39 46 51 48 45 39 40 37 33 21 21 20 22 46 69 79 94 100 88 79 87 86
44 42 44 50 55 55 55 58 62 55 35 22 12 12 26 34 45 54 57 56 45 37 36 37 34 22 20 18 18 23 62 90 100 100 96 87 84 93
49 45 44 45 47 51 53 57 61 48 27 13 12 14 33 37 48 58 65 64 52 40 39 38 34 23 19 16 18 23 76 94 91 91 97 95 96 100
61 60 54 53 59 65 63 65 50 22 13 15 18 30 40 43 58 64 67 70 61 48 42 38 33 26 22 16 18 21 77 100 100 98 92 92 90 97
67 68 72 72 70 63 63 47 15 11 16 27 27 47 43 54 67 67 76 71 61 60 46 40 38 29 23 17 17 20 80 98 100 100 100 96 94 96

GFSNE_500_rhum_075.txt.gz
RH
15 18 19 23 30 46 79 95 100 90 84 84 90 98 94 87 96 94 100 95 97 98 98 98 97 78 37 34 66 84 78 70 72 76 74 70 58 56
14 24 23 26 39 36 48 84 100 100 99 97 95 97 97 89 98 98 99 99 99 96 92 91 89 37 42 85 84 78 77 74 77 79 76 79 67 59
18 28 26 32 39 69 44 65 100 98 98 97 99 100 94 94 79 96 100 100 78 77 91 60 37 41 69 84 88 86 80 78 78 71 73 76 76 70
16 25 33 38 48 98 96 65 100 100 100 99 100 98 97 96 88 82 74 74 76 80 63 45 96 100 92 88 84 65 50 37 30 22 21 26 36 51
21 20 27 33 40 55 90 84 75 94 84 72 59 66 76 80 78 100 99 83 64 72 98 92 72 41 12 7 6 7 7 7 6 6 6 6 6 5
26 26 28 36 44 45 55 68 52 59 62 76 100 63 82 97 98 100 100 100 96 76 58 19 7 8 8 7 6 5 5 5 5 5 4 4 4 4
33 37 31 30 42 50 70 73 48 63 94 100 87 99 99 99 100 96 74 45 24 9 8 9 10 9 7 5 4 4 4 5 5 5 5 6 6 6
40 43 41 41 45 59 72 79 99 100 100 100 100 100 98 36 10 8 8 11 11 10 12 13 8 7 6 6 7 7 9 13 14 14 15 18 19 20
55 53 54 54 58 66 72 80 92 91 92 88 47 25 10 8 8 10 12 13 15 15 8 8 8 9 9 9 13 21 22 19 17 17 20 23 27 29
33 34 33 32 31 32 36 34 32 29 26 23 20 17 11 10 12 11 11 16 15 10 7 12 12 12 14 15 26 29 26 22 23 29 32 35 36 40
26 25 25 27 29 31 32 33 33 32 28 25 25 27 25 18 10 9 12 11 7 7 8 14 13 14 15 17 27 32 26 23 29 36 43 47 46 50
27 28 28 29 32 33 35 37 38 39 38 36 35 28 17 13 13 12 13 10 8 10 14 20 18 17 17 24 26 35 29 27 38 48 46 50 63 72
34 34 34 35 37 39 42 45 48 49 45 42 41 31 22 18 15 12 12 11 10 12 16 20 24 20 16 21 30 35 41 42 49 49 56 68 72 66
38 38 38 38 38 38 40 44 47 51 52 49 42 29 25 22 15 12 12 12 14 20 21 18 21 20 17 20 25 31 35 48 58 59 67 77 73 68
39 39 38 37 37 36 37 40 47 51 52 52 44 37 26 22 20 17 14 14 19 24 23 21 23 27 23 18 22 26 27 29 48 59 70 79 78 74
44 42 40 39 37 35 34 38 43 46 50 51 52 43 40 29 27 17 12 16 28 33 32 26 27 29 31 29 21 22 22 24 38 59 79 90 86 79
46 44 42 40 38 37 36 39 43 42 44 48 54 59 55 39 26 17 12 20 32 38 46 43 37 33 32 30 24 21 21 22 38 66 83 96 96 83
51 48 45 45 44 42 39 39 38 45 54 57 62 64 52 33 18 13 15 28 38 44 53 49 42 36 32 34 25 23 21 19 22 51 93 86 96 81
56 52 50 49 50 50 52 54 60 62 61 63 60 39 18 13 14 18 29 38 46 57 63 59 49 36 31 32 35 24 18 17 21 51 84 88 94 90
60 55 54 53 53 53 59 64 66 58 56 55 36 14 13 21 28 28 41 43 56 68 70 68 57 42 34 29 27 36 20 15 20 40 90 100 92 86
60 57 56 51 46 51 59 59 56 50 49 35 18 14 21 32 34 44 52 53 68 67 78 72 64 48 34 28 22 21 18 15 17 45 89 96 97 97
60 60 54 45 41 48 48 57 52 46 39 19 12 18 26 35 51 58 56 78 77 80 76 71 66 59 43 30 24 18 19 18 17 54 90 85 87 99
62 61 50 42 43 48 53 64 54 46 27 11 18 20 30 52 56 61 84 85 88 79 74 66 66 63 52 32 23 19 17 16 16 52 100 94 91 88

GFSNE_500_rhum_078.txt.gz
RH
7 7 8 9 8 10 14 21 21 24 59 71 80 73 100 93 95 100 100 99 98 98 98 99 98 98 98 98 93 90 85 84 56 45 49 54 61 66
7 11 12 13 11 14 15 14 14 22 64 98 86 67 68 100 100 100 99 98 98 98 97 97 97 97 86 78 91 91 80 48 43 47 46 59 67 68
9 11 14 18 17 19 14 15 18 22 44 82 71 53 73 82 99 96 100 99 94 87 93 90 79 82 86 74 72 76 80 76 78 76 72 68 65 62
11 16 19 22 23 22 15 17 24 28 35 52 50 90 77 99 85 80 77 79 78 86 86 94 95 92 97 90 90 76 44 28 18 10 10 9 11 13
14 22 27 29 28 29 21 21 29 37 42 36 41 54 66 68 52 89 73 57 63 72 98 100 97 48 17 8 7 8 10 11 10 8 7 6 5 5
26 28 26 32 35 32 35 34 31 38 46 60 42 40 74 92 85 81 79 74 88 87 64 32 11 10 9 12 15 12 8 6 5 4 4 4 4 3
27 22 22 36 42 42 44 45 45 47 51 52 64 72 82 88 90 97 92 48 19 11 11 13 13 16 17 16 12 10 8 5 4 5 6 7 9 10
20 20 22 25 27 31 28 26 40 36 48 53 44 54 68 61 36 16 14 10 9 10 10 11 15 20 18 12 10 8 8 7 8 9 17 23 20 17
20 19 19 21 21 20 19 18 19 20 21 22 24 24 23 22 21 15 11 11 16 13 9 11 18 23 14 11 7 8 11 11 10 19 27 25 23 26
20 20 21 22 21 21 24 26 26 28 30 34 35 35 34 30 28 29 24 16 10 9 11 15 18 15 12 9 10 13 15 14 11 25 31 25 25 31
24 26 25 25 26 28 30 30 30 30 32 35 41 45 45 42 37 32 19 17 15 15 14 12 13 12 14 13 14 15 15 14 12 26 33 31 35 48
29 29 28 29 31 32 30 31 31 31 31 34 37 42 49 49 43 32 22 22 21 20 16 15 15 11 22 24 21 18 16 14 15 26 34 39 53 57
32 33 34 35 34 32 32 32 31 30 29 31 35 41 48 51 50 41 36 26 27 26 27 18 12 11 17 24 37 30 24 17 18 25 31 38 52 53
38 39 40 39 36 35 34 32 30 30 31 32 36 38 43 44 48 51 44 46 40 30 26 20 13 17 24 27 33 38 34 28 21 23 24 30 41 53
45 46 45 43 42 40 36 34 34 34 35 35 36 37 47 50 52 57 60 59 48 34 23 17 16 23 29 32 34 39 34 35 26 23 22 23 33 55
49 51 51 48 46 42 39 37 38 38 42 49 55 58 55 53 58 60 58 45 30 21 17 18 22 31 37 47 42 37 31 29 26 22 21 20 36 72
57 59 56 53 47 42 42 40 38 34 40 49 53 45 42 47 51 40 20 15 16 19 29 29 33 41 52 56 52 39 31 29 26 21 18 20 31 73
64 65 62 55 46 46 43 37 33 31 35 39 44 43 43 44 36 20 16 24 33 32 36 48 47 59 70 70 53 38 32 29 23 21 19 18 22 59
68 68 64 56 50 51 45 40 38 36 40 50 52 45 41 34 14 15 22 33 44 41 54 53 58 71 73 68 68 45 36 34 24 21 19 17 23 66
71 70 62 54 52 54 52 42 45 49 54 59 56 49 41 17 13 17 24 40 46 59 62 62 76 70 73 64 66 65 41 30 23 20 16 16 27 91
73 72 62 53 54 59 57 50 49 45 60 65 55 49 29 10 14 15 30 45 56 58 79 91 89 78 67 62 62 63 50 30 18 15 14 14 26 95
78 76 63 58 60 65 65 62 63 50 57 63 59 44 24 14 14 18 36 44 45 70 86 100 91 85 77 64 59 58 56 37 24 16 13 13 18 68
81 80 72 67 67 71 75 68 65 63 63 70 68 47 23 16 17 23 35 39 52 70 78 82 82 84 84 76 66 53 47 33 21 19 17 12 15 48

GFSNE_500_rhum_081.txt.gz
RH
5 4 4 5 6 8 12 14 14 15 16 12 11 14 14 29 57 92 88 93 100 100 100 100 100 99 98 97 96 99 97 97 93 76 86 94 94 94
6 5 6 6 8 12 17 20 22 22 18 18 17 13 11 23 39 60 74 93 97 86 95 97 97 89 91 82 76 90 89 82 75 69 71 77 87 88
7 6 6 8 9 13 23 24 27 29 21 26 25 17 16 18 31 48 48 82 70 69 65 57 56 67 72 72 77 83 84 76 78 89 89 86 84 75
8 7 9 11 12 24 23 20 31 31 28 34 34 27 24 27 26 31 36 49 47 60 72 61 59 78 99 87 81 62 33 17 12 10 8 9 12 15
10 10 10 13 24 22 16 21 36 36 36 35 34 33 38 40 41 48 54 60 64 65 74 77 82 66 31 10 12 10 9 11 14 15 13 11 10 10
12 14 21 26 22 15 15 19 19 18 18 24 19 24 26 24 33 44 58 60 59 81 86 37 13 9 11 12 14 16 20 21 16 13 10 8 7 7
16 22 26 23 15 16 15 15 15 14 14 17 18 18 18 19 21 21 21 21 20 17 14 10 10 10 15 13 11 15 23 19 14 10 9 8 6 7
25 29 25 17 16 18 18 17 16 19 21 19 19 21 23 24 27 29 30 29 25 22 21 17 18 15 9 9 13 17 25 22 18 11 8 9 12 11
32 27 19 18 20 21 21 21 22 23 22 23 25 26 26 29 30 36 41 42 40 36 32 23 12 13 13 15 15 20 22 24 18 11 9 12 14 11
28 22 21 22 23 24 24 23 24 24 25 25 26 26 26 27 29 32 39 46 47 43 37 25 22 19 22 21 17 21 29 17 11 10 12 13 13 15
26 23 23 26 27 26 28 29 29 28 28 26 25 26 26 26 27 29 35 43 50 49 43 36 34 26 30 29 30 29 22 14 10 12 14 15 14 19
26 27 29 29 31 33 36 34 33 32 30 26 25 26 26 27 31 32 33 36 36 37 45 43 43 45 34 32 31 30 25 21 14 12 16 19 14 19
31 33 34 36 39 40 39 38 38 35 31 29 29 28 26 29 41 47 51 51 50 52 54 60 64 61 47 24 20 22 21 17 16 17 20 25 22 19
38 38 39 42 43 44 44 44 43 35 31 28 28 28 26 26 36 44 43 44 47 50 51 51 49 42 34 22 25 40 39 37 40 34 30 32 29 22
43 43 45 45 45 48 49 49 42 35 32 31 31 30 29 34 44 45 43 40 44 42 36 25 18 17 18 23 26 42 41 58 58 48 39 32 29 26
51 48 47 48 50 54 56 53 41 36 36 36 35 36 38 40 49 50 47 43 37 20 15 19 29 33 33 36 40 49 57 62 64 53 39 33 31 27
53 53 52 52 54 58 60 50 40 40 43 43 42 44 43 48 55 49 43 33 18 14 17 25 43 50 45 48 61 63 76 70 58 46 36 35 36 25
53 56 58 58 59 63 61 51 45 44 48 50 52 56 43 41 47 47 39 30 13 12 16 32 48 50 49 64 70 88 76 64 58 45 38 33 32 23
57 56 57 62 65 69 63 54 48 47 56 63 61 56 39 40 45 49 36 12 12 12 20 29 39 50 65 94 100 81 72 66 62 50 39 31 24 25
66 64 65 68 72 75 70 63 58 53 60 68 62 61 34 32 55 52 29 12 14 13 21 32 41 62 79 92 98 94 70 65 60 54 41 32 23 23
80 80 79 76 77 81 78 73 65 61 64 70 73 61 29 38 66 59 26 14 18 21 30 38 47 58 73 76 88 99 99 85 63 48 40 25 21 23
94 93 95 90 89 90 86 80 76 67 68 72 76 39 31 57 72 64 31 15 20 24 32 42 49 52 60 56 69 78 86 85 75 57 38 17 14 14
100 100 98 99 100 99 97 90 82 80 73 77 70 30 35 58 74 76 38 16 20 26 28 36 43 47 60 56 56 60 67 69 65 63 57 34 18 12

GFSNE_500_rhum_084.txt.gz
RH
12 9 12 7 6 6 6 6 6 7 11 19 18 25 24 24 29 23 16 22 34 44 96 63 83 56 47 61 82 94 96 95 100 98 99 96 96 96
10 12 10 7 7 6 6 7 8 10 18 17 15 25 27 29 29 26 26 28 32 36 95 47 34 34 43 34 34 42 60 72 74 78 86 97 97 88
10 14 8 8 7 7 9 9 12 19 16 12 16 26 26 25 25 25 26 32 38 43 46 45 48 49 61 49 56 65 71 81 89 85 88 81 80 85
14 12 8 9 9 11 15 20 22 17 12 13 14 12 14 14 13 13 12 14 20 36 46 51 54 63 69 76 76 76 84 63 38 29 12 11 9 9
17 10 10 11 14 16 19 24 18 13 13 14 13 11 13 15 14 13 14 14 16 18 19 20 27 34 35 13 8 10 11 12 13 15 18 20 20 20
15 12 13 17 18 23 27 21 14 15 15 15 14 16 18 17 17 16 17 17 18 22 26 28 27 23 15 9 7 10 12 8 10 12 20 22 22 18
14 15 21 24 27 28 24 17 16 17 18 19 20 20 18 18 18 18 18 18 18 20 23 29 36 37 33 31 26 15 8 8 8 12 17 21 23 25
18 24 27 29 30 26 19 18 20 19 20 21 21 21 20 19 17 18 17 15 15 20 22 29 42 45 37 31 17 11 14 13 12 12 12 18 25 18
27 30 31 33 29 22 20 22 23 24 26 25 24 24 25 22 18 17 18 18 19 24 27 31 42 46 47 42 31 27 24 22 22 15 18 27 30 12
34 36 37 31 26 22 23 25 28 30 32 30 30 29 26 22 20 20 22 21 21 28 35 34 35 35 34 39 42 44 46 40 36 38 38 32 21 17
41 40 35 30 27 27 30 33 36 37 37 36 35 32 26 23 21 22 24 25 24 28 44 48 44 42 40 43 47 50 53 55 55 52 41 31 25 17
43 39 35 32 32 34 37 39 40 42 41 41 40 32 28 25 24 27 31 31 29 39 38 38 36 35 41 40 43 48 52 55 57 52 42 33 23 18
44 39 37 37 39 40 41 42 43 44 46 47 42 33 28 29 31 35 39 39 32 38 39 42 43 39 34 30 28 25 23 22 21 20 19 18 17 17
47 47 47 44 43 43 43 42 44 48 50 50 40 35 33 35 38 46 48 38 30 34 39 40 38 30 17 17 26 35 44 46 40 32 25 26 31 36
56 57 56 52 51 51 50 50 50 52 54 50 43 39 37 41 46 53 50 28 29 34 44 34 13 11 12 14 28 57 62 82 63 48 46 58 67 59
64 60 54 55 56 54 50 49 51 53 58 53 48 44 43 45 51 54 54 26 23 39 37 15 10 11 12 23 39 58 57 54 68 60 82 83 72 54
64 57 56 56 53 49 51 54 54 53 60 60 58 53 50 48 52 53 40 23 29 50 39 11 12 14 14 25 38 42 50 56 81 95 80 71 69 52
59 58 60 60 60 62 62 60 61 62 68 69 66 61 59 59 56 43 27 23 46 54 42 12 16 18 18 24 39 53 61 83 81 75 64 66 72 56
71 76 76 76 75 73 69 69 75 73 76 79 75 71 67 66 58 46 22 24 43 61 51 14 18 24 30 45 55 45 59 64 66 72 69 67 64 69
85 80 79 82 85 84 79 79 85 88 89 90 84 79 73 72 62 38 24 29 52 72 69 28 16 25 33 46 79 71 56 62 66 74 75 73 59 60
97 98 97 93 93 91 87 86 88 98 96 94 89 84 81 80 66 40 34 32 50 73 84 55 19 19 28 35 48 72 69 56 60 63 67 66 60 62
100 100 98 96 91 89 94 96 98 95 93 95 94 93 86 72 60 53 43 39 50 67 79 84 42 19 22 27 35 46 71 72 57 53 53 51 50 45
100 100 98 97 99 100 100 100 100 96 94 95 94 94 83 70 66 42 44 46 49 68 76 92 81 43 21 21 25 34 39 50 56 60 65 54 49 42

GFSNE_500_rhum_087.txt.gz
RH
15 18 13 13 12 10 10 7 7 5 8 9 13 18 15 12 17 23 24 23 16 12 12 20 23 28 31 31 33 39 41 46 37 47 85 97 98 99
34 24 12 13 10 14 8 8 8 9 11 15 17 15 11 12 13 12 17 12 10 10 10 10 17 25 28 35 40 45 48 46 46 50 51 53 79 92
24 13 14 11 12 14 9 10 11 14 15 18 17 13 12 13 12 12 13 14 12 12 13 13 14 16 19 25 33 52 57 56 57 70 82 83 95 82
13 15 12 11 18 10 11 13 16 17 19 20 16 13 14 14 12 15 16 14 14 14 14 14 14 16 20 24 26 23 30 40 56 70 72 66 43 29
15 12 11 18 16 11 15 18 20 20 23 18 15 15 15 16 18 18 16 15 15 16 16 16 15 16 18 26 35 30 20 10 9 11 13 13 15 16
13 13 18 18 13 17 19 22 22 23 20 16 17 16 17 19 18 18 18 18 16 16 14 14 14 15 17 21 32 44 42 31 21 12 13 10 9 10
15 18 20 17 19 23 26 26 27 22 19 19 19 21 23 22 22 22 23 20 17 16 16 16 16 17 21 28 32 40 47 42 35 14 8 8 8 9
23 23 20 22 27 30 29 28 25 21 21 22 24 27 27 26 27 28 25 22 18 19 18 20 18 17 22 32 33 32 37 47 42 28 22 21 18 20
25 24 27 31 35 32 32 29 25 24 25 27 30 30 31 33 33 30 26 23 21 22 21 23 21 17 20 30 40 41 40 39 43 47 43 40 43 36
28 32 36 39 36 36 33 29 28 28 30 32 31 33 36 39 39 32 27 25 25 26 27 29 23 17 24 33 36 35 33 32 36 46 55 61 61 52
36 40 43 41 39 36 33 32 32 33 33 32 33 37 41 43 40 34 31 30 30 31 30 31 19 17 20 31 38 40 39 37 35 36 45 55 61 58
47 48 46 44 40 38 35 35 37 35 36 37 40 41 43 43 41 38 35 36 35 33 35 36 20 17 31 40 36 21 11 11 13 17 21 26 33 34
53 50 48 46 46 45 46 43 43 43 44 44 40 40 41 44 45 44 42 42 40 38 36 23 19 21 35 34 14 10 12 12 12 17 35 40 40 40
54 53 54 57 53 55 54 51 50 48 45 42 41 42 45 50 50 51 50 48 46 44 34 18 19 29 37 24 12 14 14 14 18 25 44 54 53 47
60 64 67 62 61 60 57 55 49 46 48 49 50 51 53 59 61 61 59 54 49 50 36 19 22 35 39 20 13 17 17 18 28 44 54 60 58 50
71 75 72 67 67 61 55 53 52 56 58 58 61 66 67 67 70 72 69 60 57 53 21 21 26 44 45 22 14 19 21 21 26 32 53 81 91 86
84 81 76 67 61 61 62 64 68 65 64 65 72 79 82 82 83 81 75 68 64 40 18 18 26 57 59 29 17 21 26 32 42 56 71 94 90 75
93 80 76 74 74 76 77 78 76 77 77 80 78 78 80 84 88 83 77 73 70 42 21 19 23 45 74 48 22 27 30 41 48 54 60 73 95 83
100 89 89 87 84 85 88 88 88 88 87 89 86 84 86 94 93 85 78 76 58 38 25 21 24 40 70 70 34 25 25 36 46 51 54 63 80 86
100 100 100 100 98 94 90 93 94 94 91 90 89 89 94 97 88 87 84 81 60 48 34 26 25 31 53 86 54 36 30 27 35 46 50 52 59 69
99 98 100 100 100 96 96 100 98 93 94 92 90 95 99 96 92 93 93 92 89 76 52 36 31 30 37 56 96 76 44 31 26 33 41 46 50 62
100 100 100 100 100 98 97 99 94 99 96 92 98 99 95 90 92 90 90 100 92 59 36 34 44 40 42 44 70 100 73 51 36 26 31 33 39 48
100 100 100 98 93 99 100 100 100 99 93 97 98 96 88 78 68 57 37 33 34 33 29 32 37 46 69 69 72 86 82 56 37 32 34 26 27 31

GFSNE_500_rhum_090.txt.gz
RH
63 41 29 17 16 24 27 15 12 14 8 10 9 12 15 17 16 13 12 12 12 13 13 12 10 10 11 10 10 12 16 22 28 38 49 48 63 67
28 21 18 18 26 23 15 14 12 15 9 10 13 16 18 18 15 12 13 13 12 13 15 13 13 12 12 12 12 12 12 12 15 18 20 42 46 57
28 19 20 22 16 15 14 12 17 11 10 14 17 19 19 17 14 14 14 14 15 17 15 15 15 14 14 13 12 12 12 12 13 15 18 20 34 60
28 21 22 16 15 15 12 14 17 13 14 19 21 20 19 15 15 15 17 17 17 16 17 17 16 14 13 14 14 14 14 15 16 22 28 23 30 50
35 30 19 17 16 13 14 21 16 15 21 24 23 22 17 17 17 19 20 19 19 20 21 20 18 16 16 16 16 14 15 19 24 28 41 34 10 9
25 18 19 16 14 17 25 20 15 23 26 27 24 20 18 19 22 24 23 23 25 26 24 22 18 20 19 19 19 15 14 19 28 30 36 43 35 22
19 18 18 18 21 36 18 18 25 29 29 27 24 21 21 24 27 27 28 30 31 30 27 23 23 24 24 22 21 17 13 15 24 32 32 35 44 43
58 27 18 27 29 23 22 27 32 32 30 27 24 23 27 30 30 31 33 36 36 31 29 28 29 29 27 25 23 17 13 16 21 24 27 28 32 33
22 24 35 34 24 26 30 37 36 34 31 28 27 30 34 34 34 33 32 32 33 33 32 33 34 33 31 28 24 17 13 15 20 27 32 35 34 32
36 41 44 27 30 36 41 41 38 35 31 31 35 38 36 37 35 33 31 30 33 36 37 38 39 36 34 29 18 16 16 19 26 31 26 19 22 32
80 43 29 34 45 46 45 42 38 34 33 36 39 40 40 38 33 31 31 35 40 43 45 46 44 39 35 30 16 16 19 26 30 17 11 12 13 13
39 31 37 50 50 49 46 42 42 42 43 44 46 45 41 38 37 35 36 42 48 53 56 55 50 45 40 29 15 15 20 30 23 12 13 14 13 14
37 37 51 55 53 50 48 49 50 54 53 53 47 43 44 44 43 44 49 50 52 58 67 63 54 47 37 17 15 15 22 32 19 13 15 15 15 20
40 56 60 57 55 56 58 57 59 56 57 50 46 50 49 47 46 52 58 61 63 72 74 68 56 50 37 16 16 15 24 34 24 15 17 18 20 32
65 66 62 60 63 66 66 65 62 58 54 52 56 57 55 56 64 65 66 67 72 80 75 68 62 56 30 19 17 18 23 41 30 18 21 23 29 36
71 66 67 71 74 77 74 67 59 62 63 65 67 67 68 68 68 70 75 80 81 79 77 75 70 59 42 23 22 22 24 47 43 23 28 31 32 41
72 72 75 80 85 80 70 70 72 74 73 73 76 79 75 71 68 71 80 83 83 82 79 79 78 79 75 40 31 26 29 37 59 33 31 42 40 44
78 79 84 90 90 82 83 84 83 84 84 80 83 82 81 77 74 76 82 85 88 87 86 82 83 90 84 66 47 42 35 48 76 66 36 44 56 45
87 88 88 92 99 96 94 96 98 92 86 89 90 88 85 86 82 81 84 88 88 84 75 44 36 39 38 37 44 52 32 38 62 87 77 36 59 66
97 96 96 96 98 100 98 97 98 91 87 89 91 98 97 97 90 87 89 89 64 35 24 21 24 27 28 28 29 75 57 62 64 88 97 90 48 44
98 100 100 99 98 97 96 96 87 80 93 95 99 98 98 100 93 90 89 46 17 17 18 19 22 25 25 22 22 38 70 80 72 70 91 99 93 55
100 99 99 99 100 100 100 96 92 93 99 100 100 97 100 99 92 87 44 15 17 18 18 20 22 24 23 22 30 38 28 26 28 33 35 33 53 73
100 100 100 96 97 100 96 94 99 98 96 94 94 97 99 95 86 55 13 16 20 20 19 19 20 23 23 26 30 20 32 49 53 47 48 38 37 36

GFSNE_500_rhum_093.txt.gz
RH
72 52 55 58 53 29 22 18 18 19 15 16 14 14 10 27 14 17 17 16 12 12 12 12 14 15 13 14 14 14 13 11 11 12 11 11 10 11
55 60 72 62 38 30 21 20 19 16 15 14 16 13 16 16 19 19 18 14 13 13 14 15 16 15 16 17 17 14 13 15 14 12 11 10 9 10
67 79 68 60 44 31 20 20 17 17 14 14 17 14 16 20 22 20 17 15 15 16 17 16 17 18 20 22 19 17 19 18 16 15 12 10 9 11
80 84 85 70 31 36 31 24 23 15 14 20 15 13 20 24 23 20 17 17 20 20 20 20 22 24 25 22 21 23 21 21 19 16 14 12 10 10
86 86 81 74 62 68 28 18 16 16 20 21 16 20 26 26 23 20 20 22 23 22 24 26 28 29 27 25 26 27 26 23 19 17 16 12 11 13
82 77 73 71 49 22 18 17 17 23 40 19 22 29 29 27 23 22 24 26 25 25 26 29 32 30 29 29 30 30 27 24 22 20 17 12 12 14
60 32 26 24 29 24 23 19 33 41 22 24 34 33 30 27 24 26 28 27 27 27 28 30 30 31 31 32 34 33 29 25 23 18 14 13 13 15
33 45 57 48 30 51 24 53 66 29 28 35 36 34 30 28 28 30 28 29 29 26 28 30 32 34 36 38 39 36 33 30 28 15 13 15 18 21
40 38 46 48 71 32 38 57 29 32 37 40 37 35 31 32 31 30 31 30 29 29 31 33 34 36 39 44 44 41 37 34 28 12 12 14 19 26
58 73 58 44 37 45 83 40 36 42 43 41 38 35 34 35 35 36 34 32 32 33 34 36 40 42 47 50 49 46 41 37 19 13 13 14 23 28
58 26 31 47 67 74 34 38 45 48 46 42 39 38 41 41 42 37 37 40 39 39 39 41 43 48 54 53 54 50 47 40 16 14 14 15 25 26
45 42 61 83 48 34 42 53 54 51 47 45 48 50 49 49 43 42 45 43 44 48 47 50 54 61 62 59 58 56 52 45 21 15 16 19 28 28
58 63 81 51 35 47 61 60 55 52 51 54 55 57 54 48 46 51 49 49 54 57 57 58 63 66 62 60 63 61 60 56 33 19 19 20 31 31
68 71 55 45 50 68 66 59 57 58 63 61 63 60 54 52 59 60 59 61 58 54 55 64 68 69 68 69 61 33 31 34 42 24 25 24 32 39
94 65 78 58 73 71 63 62 65 69 70 70 63 58 61 68 69 68 70 66 59 59 63 66 70 72 66 43 30 21 20 25 30 29 27 30 38 46
73 97 77 82 78 69 68 70 75 78 76 67 70 73 75 74 76 74 72 70 65 69 69 70 71 53 25 17 18 18 20 25 28 28 29 29 42 58
99 93 96 91 78 74 74 77 84 80 78 82 83 84 86 82 82 76 77 78 77 79 72 71 48 18 17 18 18 19 21 23 25 24 23 27 48 69
100 100 97 92 87 82 84 90 94 92 95 97 99 98 92 85 77 75 80 81 88 87 76 52 16 16 19 20 20 20 19 22 22 22 24 36 82 95
100 100 100 100 98 94 93 92 99 100 100 99 92 90 83 85 85 78 84 86 92 90 74 19 15 20 19 20 20 19 20 22 22 23 30 38 57 98
100 100 100 100 100 99 98 100 100 98 93 92 90 96 89 86 83 83 88 88 93 88 48 14 19 21 21 21 20 20 20 22 24 28 24 24 33 33
100 100 100 100 100 100 100 100 100 100 99 98 99 94 87 86 85 87 90 93 94 75 18 14 24 23 22 23 21 21 21 23 27 24 49 63 66 64
99 100 100 100 100 100 100 100 100 95 97 100 98 94 91 93 91 94 94 97 89 30 14 24 30 26 25 24 23 20 21 26 24 43 68 67 59 32
100 97 96 100 100 100 99 100 100 100 100 100 100 97 92 99 100 100 100 93 49 15 27 32 31 29 27 24 24 18 21 27 25 58 80 80 78 50

GFSNE_500_rhum_096.txt.gz
RH
72 84 96 95 74 63 57 73 57 42 36 21 21 19 17 14 16 12 13 16 20 19 16 13 14 14 14 14 15 17 21 21 19 20 19 17 16 14
88 89 82 72 65 65 80 71 62 35 32 26 24 20 16 14 16 12 17 20 22 19 16 15 16 17 17 18 20 23 25 22 22 20 16 17 16 14
90 78 77 74 79 84 79 82 76 35 53 54 24 21 14 18 15 15 22 24 22 18 17 18 18 19 20 23 25 27 25 24 22 21 21 18 15 14
95 88 81 78 82 80 82 78 79 64 70 29 18 15 20 20 16 24 28 26 22 20 20 21 21 20 20 22 21 23 23 22 24 26 24 20 18 17
83 79 81 79 81 81 76 78 81 62 24 19 18 20 28 25 24 30 29 26 22 22 24 23 22 21 20 19 19 24 26 26 27 25 25 25 23 21
70 71 82 81 80 80 64 31 23 27 23 23 23 37 48 27 33 33 30 26 24 27 26 26 24 22 21 23 24 25 28 32 33 32 31 30 26 22
64 72 72 73 84 64 31 41 38 26 48 28 32 63 30 35 37 34 30 28 28 29 29 26 26 23 23 24 24 29 35 38 37 37 36 36 29 19
68 75 82 85 77 36 39 47 61 73 54 62 81 44 37 41 38 34 31 32 31 30 31 29 27 27 29 30 33 36 41 43 43 42 42 38 27 15
83 98 98 79 46 33 40 44 46 52 42 69 55 42 44 42 38 35 33 34 35 35 33 32 33 35 38 39 40 44 49 50 46 45 43 27 22 22
56 44 36 34 33 58 64 43 49 48 84 58 45 49 46 41 38 38 40 40 39 37 38 38 37 42 47 51 51 55 57 51 45 35 14 12 22 28
81 73 70 68 49 33 37 45 51 88 48 45 54 50 46 43 44 48 48 45 41 43 43 38 46 51 51 53 56 57 55 46 18 11 12 13 15 34
91 97 94 92 95 72 60 85 90 46 54 61 56 51 49 51 55 56 53 47 48 50 46 51 55 52 56 55 57 57 44 12 12 12 14 15 16 27
89 100 97 90 77 76 70 79 48 59 65 61 56 54 57 60 62 58 52 51 57 59 59 64 60 59 62 62 58 48 12 12 13 16 17 17 19 23
63 53 57 55 76 80 94 58 70 72 68 61 60 65 69 68 65 56 58 65 64 67 70 69 68 71 70 66 57 16 12 14 17 19 20 17 21 24
75 72 82 84 94 97 72 81 78 80 69 68 74 77 77 70 62 68 72 72 73 74 73 75 77 80 78 69 35 13 16 16 19 21 22 19 19 22
88 95 100 98 99 91 99 87 93 90 84 86 87 86 76 76 81 83 84 79 76 74 73 75 80 86 81 61 15 17 16 18 21 23 22 20 20 22
98 100 100 99 91 100 100 100 99 98 99 100 94 88 87 89 92 92 90 87 83 83 82 82 86 91 85 36 15 19 18 19 23 24 24 20 22 26
100 98 100 99 100 100 100 98 99 100 100 100 100 100 98 94 98 94 94 88 85 88 85 82 90 90 75 17 16 23 19 21 25 26 23 19 28 28
100 100 100 100 100 100 99 99 100 100 100 100 100 100 100 100 96 92 94 91 91 89 87 88 88 89 38 14 24 24 23 25 27 26 17 17 25 27
100 100 100 100 100 99 99 100 100 100 100 100 100 100 100 98 95 93 94 94 92 92 93 88 87 72 14 23 31 26 28 30 29 19 13 19 24 34
100 100 99 98 98 100 100 100 100 100 100 100 100 100 100 98 98 98 99 100 99 96 92 89 88 28 20 26 24 29 32 32 31 19 13 18 23 45
100 100 100 100 100 100 100 100 100 100 100 100 100 100 99 100 99 99 100 99 95 95 93 93 83 18 26 23 23 26 31 33 33 20 13 18 22 41
100 100 99 100 100 100 100 100 100 100 100 100 100 96 100 100 100 100 100 98 95 95 92 97 41 22 28 21 23 26 30 34 32 16 14 18 21 26

GFSNE_500_rhum_099.txt.gz
RH
95 88 92 82 71 77 84 78 70 63 73 75 71 43 32 42 47 27 15 16 14 13 21 23 20 16 15 16 16 16 18 21 23 21 20 18 18 17
76 73 73 77 79 81 82 77 73 79 72 72 80 53 54 64 30 18 16 19 13 19 25 23 20 18 18 17 16 17 18 16 16 19 19 21 20 19
87 94 90 74 84 86 84 85 83 81 73 69 76 74 73 43 19 17 22 17 19 25 26 23 21 20 20 18 18 17 17 18 19 21 21 19 20 22
88 78 74 78 82 83 84 82 83 81 80 75 71 66 29 26 18 23 23 32 26 29 27 24 22 22 20 20 20 19 18 20 22 22 21 24 21 20
78 82 84 87 84 78 82 83 78 75 79 60 33 25 25 26 26 29 49 30 32 31 28 25 25 24 22 23 20 19 22 22 21 24 23 23 23 24
82 86 86 77 71 66 72 81 76 72 73 35 34 29 44 37 30 58 44 44 35 32 30 27 28 26 25 23 22 23 23 27 29 30 31 32 34 31
87 88 80 72 67 63 66 73 87 88 50 40 52 60 61 38 50 78 42 38 36 33 31 30 30 29 27 26 28 29 32 34 38 40 42 43 39 31
89 88 83 75 68 71 65 73 87 83 34 39 47 61 51 75 78 42 42 41 37 34 33 34 34 33 30 30 32 36 41 46 45 45 48 46 37 12
86 81 76 70 67 81 82 83 91 53 35 47 48 57 42 70 48 48 45 41 37 37 39 40 38 35 36 33 38 45 48 46 47 51 51 39 10 9
86 85 72 64 55 52 52 46 39 38 51 65 50 49 88 62 54 50 46 41 42 46 48 44 41 42 38 42 51 50 48 46 51 55 40 10 12 13
93 98 93 69 65 60 45 39 41 50 53 54 52 93 70 61 56 50 46 48 54 56 54 48 48 48 50 59 59 56 58 56 57 51 12 12 15 16
88 96 98 95 94 96 97 96 95 90 88 53 98 93 77 63 56 52 53 58 62 59 54 53 57 60 67 66 65 66 64 64 61 20 13 14 18 20
98 98 92 99 96 98 100 99 99 100 80 98 90 80 73 62 59 58 65 67 67 58 58 68 66 72 71 68 70 72 70 70 50 14 16 16 21 24
85 96 93 84 89 92 96 99 100 90 96 100 97 93 74 70 65 70 74 73 64 68 73 75 78 77 73 74 74 73 75 75 26 16 17 18 24 27
75 69 78 83 98 98 96 100 100 100 100 100 100 96 92 82 80 84 80 71 77 79 84 84 81 84 86 85 85 74 76 71 17 18 20 19 24 29
78 79 91 100 100 100 100 100 100 100 100 100 100 100 99 94 94 90 81 85 86 92 95 95 90 92 90 90 86 81 82 49 14 21 22 23 28 31
95 91 98 100 100 100 100 100 100 100 100 100 100 100 100 99 95 95 97 99 96 99 99 95 91 88 92 87 86 84 80 19 20 23 24 31 31 34
100 100 100 100 100 100 100 99 100 100 99 100 100 100 100 100 100 100 100 100 100 99 91 90 88 92 96 86 87 84 51 17 23 20 26 32 33 37
100 100 100 100 100 100 100 100 100 100 100 100 100 100 99 100 100 98 98 98 100 99 91 89 95 100 98 96 87 84 22 24 22 23 26 33 38 39
100 100 100 100 100 100 100 100 100 100 100 100 100 100 99 96 98 99 99 100 100 100 95 92 96 98 100 99 98 82 20 27 22 24 26 30 41 38
100 100 100 100 100 100 100 100 100 100 100 100 100 100 100 100 100 99 100 99 97 97 97 91 95 100 100 100 100 68 22 29 22 24 26 30 43 36
99 100 100 100 100 100 100 100 100 100 100 100 100 100 100 100 100 100 100 100 100 100 99 92 91 96 98 100 100 65 24 27 25 25 26 27 46 33
100 93 93 100 100 100 100 100 100 100 100 100 100 100 100 100 100 100 100 100 100 100 96 97 98 98 100 99 100 82 27 26 27 28 27 27 43 35

GFSNE_500_rhum_102.txt.gz
RH
80 69 93 96 93 91 82 79 77 75 77 78 80 80 82 78 79 64 52 63 27 16 16 15 18 23 23 20 18 18 15 15 15 15 13 14 16 15
85 89 93 91 95 82 86 79 88 82 75 71 75 85 84 86 80 74 74 39 19 21 19 17 28 26 23 21 20 19 17 17 16 14 14 16 16 15
94 85 87 92 89 89 97 100 95 89 77 75 75 82 87 82 73 61 35 32 21 23 23 36 30 28 24 22 22 19 19 18 16 16 16 16 18 18
84 78 84 94 83 91 93 94 85 81 81 79 78 81 88 76 40 28 29 23 27 36 50 31 32 28 25 25 24 22 22 19 18 18 18 21 22 22
78 73 94 98 95 90 87 82 86 82 79 85 78 81 92 51 30 30 34 40 27 53 37 49 32 29 27 27 25 25 24 20 21 22 25 27 30 26
89 95 97 100 96 95 89 82 77 76 70 82 84 80 85 42 40 54 57 39 40 60 63 38 33 31 30 29 28 29 26 24 26 27 32 37 34 33
76 79 88 88 83 90 96 94 86 74 73 82 84 94 81 43 43 61 61 30 72 50 44 39 34 33 32 32 33 31 29 31 30 36 40 40 36 37
64 86 90 91 91 99 94 85 82 79 82 86 85 94 90 43 41 59 56 89 60 53 60 38 36 35 37 38 36 34 36 32 40 46 43 41 40 45
37 61 88 98 100 100 95 86 83 80 97 100 98 75 78 49 60 88 45 70 63 54 45 39 38 41 44 42 40 40 35 42 52 51 52 50 51 51
47 53 85 99 100 100 99 80 67 64 57 67 85 77 54 81 93 50 86 94 79 58 44 43 48 50 48 46 46 44 48 57 60 59 58 59 58 46
58 61 70 96 99 93 98 96 72 70 64 56 54 58 76 85 54 72 99 97 91 65 49 55 59 57 51 50 54 57 65 64 65 67 67 66 63 24
61 59 59 83 96 88 84 100 92 96 96 93 89 94 88 73 78 100 99 98 90 66 61 64 64 59 56 63 64 68 68 67 68 70 73 73 56 15
71 79 68 74 80 99 100 100 100 100 100 100 100 100 99 81 100 100 100 97 94 72 72 71 65 61 69 70 75 75 74 74 77 77 81 81 40 15
77 78 85 87 92 92 100 100 98 99 100 100 100 100 100 100 99 100 97 99 95 89 84 73 68 78 79 84 79 79 79 79 78 80 86 82 23 16
82 67 69 81 91 84 90 97 98 100 96 100 100 100 100 99 100 100 99 100 100 100 83 76 85 91 94 88 88 83 78 83 78 86 87 64 15 21
90 96 97 92 82 81 79 93 100 100 96 100 100 100 100 100 100 100 100 100 100 98 90 94 100 100 100 99 92 78 80 77 83 90 88 34 19 20
96 100 100 100 95 90 93 100 100 100 100 100 100 100 100 100 100 100 100 100 100 100 100 100 100 100 100 99 94 89 85 82 85 82 86 20 23 19
98 100 97 100 100 98 100 100 100 100 100 100 100 100 100 100 100 100 100 100 100 100 100 100 100 100 100 97 97 90 85 87 86 87 81 22 26 21
100 100 100 98 100 100 100 100 100 100 100 100 100 100 100 100 100 100 100 99 94 94 99 100 100 100 100 100 88 85 86 87 83 88 84 25 29 24
100 98 99 100 100 100 100 100 100 100 100 100 100 100 100 100 100 100 99 97 93 98 96 96 99 100 96 100 96 80 83 85 82 91 89 27 27 28
98 100 100 99 100 100 100 100 100 100 100 100 100 100 100 100 100 100 100 97 94 94 96 93 100 100 100 100 99 90 80 84 86 96 99 40 26 28
100 98 98 100 100 100 100 100 100 100 100 99 100 100 100 100 100 99 100 100 100 100 100 97 100 100 100 100 100 100 93 82 83 91 100 72 34 33
100 100 100 100 100 100 100 100 100 100 100 100 100 100 100 100 100 100 98 100 100 100 100 100 99 100 100 100 100 100 98 90 88 93 92 84 68 56

GFSNE_500_rhum_105.txt.gz
RH
99 98 90 97 94 90 98 92 88 84 89 81 77 92 93 94 86 87 86 80 80 77 71 38 18 20 15 29 26 23 21 19 17 15 16 14 12 14
76 93 82 94 96 89 90 79 90 93 78 87 88 92 94 97 94 96 93 80 75 69 36 31 22 20 29 31 28 23 22 21 19 18 17 15 15 15
82 88 89 81 94 98 94 96 97 94 96 94 96 97 95 93 96 96 95 73 64 36 29 21 25 29 45 39 29 24 24 23 22 21 20 17 17 18
82 79 77 96 97 97 95 95 96 96 94 97 94 89 92 97 95 97 94 79 48 29 27 34 27 48 34 38 29 26 27 26 25 24 20 19 21 25
88 100 90 80 92 97 95 98 98 98 97 96 90 90 95 92 95 92 90 83 35 32 42 40 39 41 48 40 30 29 30 29 28 26 23 23 25 31
68 92 83 93 99 95 100 98 97 100 99 99 97 94 96 99 97 94 93 78 40 56 60 34 51 67 47 35 32 32 34 32 31 28 28 29 30 37
28 34 49 78 83 89 100 100 98 100 98 99 95 98 97 96 100 97 98 94 60 67 60 37 79 63 63 37 34 36 35 35 33 33 33 34 44 46
45 44 38 38 38 47 98 100 100 100 100 100 99 100 98 100 97 97 97 95 88 70 50 76 82 72 79 39 38 40 40 38 37 38 38 46 53 55
50 43 32 34 37 41 46 78 100 100 100 99 100 98 93 96 100 99 97 89 78 98 93 98 78 94 65 40 43 47 45 43 44 44 52 60 59 60
50 46 48 43 38 48 54 81 100 100 100 98 92 92 89 92 92 97 99 100 99 96 78 98 92 84 56 47 53 53 49 50 55 61 65 62 58 59
63 60 61 52 52 57 63 69 84 100 96 90 100 90 96 89 94 97 99 100 99 92 99 99 98 88 52 59 62 58 53 61 68 71 67 62 63 65
61 66 66 63 61 62 62 65 68 99 100 100 99 98 100 89 98 99 100 100 100 98 100 100 98 72 66 70 66 56 61 71 79 77 71 68 68 64
62 67 67 76 73 76 85 80 84 94 100 100 100 96 100 100 100 100 100 99 99 100 100 100 97 83 82 78 64 63 72 83 85 80 77 74 72 70
62 77 72 79 82 78 76 88 99 97 96 100 100 97 98 100 100 100 100 100 100 100 100 100 99 99 93 76 70 78 89 94 92 86 82 80 75 75
59 74 76 85 86 72 71 77 93 99 95 97 99 98 100 100 100 100 100 100 100 100 100 100 100 100 90 81 85 91 98 96 94 88 88 83 78 77
60 76 84 90 88 95 97 100 100 99 97 93 91 100 100 100 100 100 100 100 100 100 98 100 100 97 94 92 89 88 89 95 94 94 92 86 82 76
67 70 90 92 92 91 100 92 100 100 100 96 100 100 100 100 100 99 100 100 100 100 100 100 99 99 100 100 90 78 88 89 89 92 91 86 80 74
90 82 87 95 97 100 86 99 100 100 99 99 100 100 100 100 100 100 100 100 100 100 100 100 100 100 99 94 90 88 87 83 86 87 90 88 79 66
94 96 98 100 99 99 100 92 93 100 100 100 100 100 100 100 100 100 100 100 100 100 100 100 100 100 100 95 96 90 88 85 94 98 94 92 88 69
94 95 96 100 100 100 97 99 100 100 100 100 100 100 100 100 100 100 100 100 100 100 100 100 98 96 99 100 98 89 90 90 95 96 92 95 94 88
94 96 93 98 100 100 100 100 100 100 100 100 100 100 100 100 100 100 100 100 100 100 100 100 98 100 97 100 100 88 83 89 92 96 91 93 91 92
64 86 96 99 100 100 100 100 100 100 100 100 97 98 100 100 100 100 100 100 100 96 100 97 98 100 100 100 100 98 90 78 86 93 92 96 96 97
23 40 56 80 97 100 100 100 100 100 100 100 100 100 100 100 100 100 100 100 100 100 100 100 97 92 99 100 100 100 95 88 83 82 89 94 94 97

GFSNE_500_rhum_108.txt.gz
RH
11 11 20 38 46 53 66 94 95 93 92 96 83 84 89 95 96 94 89 87 82 89 95 93 93 68 35 24 21 18 34 28 23 21 20 16 17 15
9 12 18 41 68 65 75 74 84 74 75 92 97 100 91 96 97 98 97 96 88 94 96 89 63 36 42 22 21 27 42 31 25 23 20 18 19 17
15 22 33 48 74 89 85 78 73 93 87 92 97 95 100 98 98 98 100 95 96 93 94 92 54 29 24 26 23 40 37 31 25 25 24 22 22 18
26 31 47 62 78 96 100 100 100 100 100 91 91 99 96 97 98 100 100 100 96 98 98 97 43 26 26 30 38 40 31 29 26 28 29 25 25 21
18 18 20 33 52 64 88 95 99 100 100 100 100 99 99 98 100 100 99 99 99 97 98 96 45 30 68 36 45 39 44 29 29 32 34 30 27 25
20 23 25 27 26 24 26 54 86 94 99 100 100 99 100 100 100 99 99 98 98 98 97 98 60 70 58 55 55 84 42 32 33 36 36 34 31 32
23 27 28 28 30 34 37 37 34 42 52 76 99 98 99 98 99 99 99 98 99 99 98 99 94 76 88 68 94 86 79 36 38 40 40 38 36 36
19 24 29 29 32 40 45 41 32 36 44 44 56 100 98 96 99 99 96 96 97 100 100 100 100 98 88 90 88 85 78 38 43 43 43 41 42 42
15 21 27 32 38 45 44 44 45 41 37 48 64 91 100 96 100 96 94 95 87 97 98 100 95 86 95 100 90 100 56 44 48 49 46 48 48 55
15 20 30 38 40 50 60 60 51 46 52 61 70 93 100 100 96 95 100 100 100 100 100 100 98 100 100 100 100 93 52 53 56 53 52 57 62 66
25 26 35 37 43 50 58 65 65 58 61 65 72 95 100 100 100 89 98 94 98 100 100 100 100 100 100 100 100 86 60 69 65 57 59 68 71 73
33 30 34 42 47 54 61 61 70 66 71 70 82 100 100 94 100 100 100 100 100 100 100 100 100 100 100 100 100 79 86 83 71 62 72 75 78 73
33 27 30 37 48 57 65 66 74 77 78 85 85 92 100 100 100 100 100 100 100 100 100 100 99 100 100 100 100 97 99 93 73 74 81 85 84 82
35 32 37 39 45 53 60 68 80 75 78 77 78 89 100 100 100 99 100 100 100 100 100 100 100 100 100 100 100 100 100 92 78 86 89 87 82 79
34 36 42 49 50 51 58 77 91 86 94 95 83 82 95 100 99 98 100 100 100 100 100 100 100 100 100 100 99 100 100 89 89 94 87 82 81 77
53 54 54 53 53 52 64 87 93 95 95 98 99 100 96 95 92 100 100 98 100 100 100 100 100 100 100 100 100 100 99 95 99 93 82 84 79 73
62 61 58 73 76 67 71 86 93 88 96 89 100 99 100 96 96 100 100 100 100 100 100 100 100 100 100 100 100 100 100 100 100 99 94 87 76 73
67 65 76 86 89 90 90 94 97 96 89 96 93 100 100 99 100 100 100 100 100 100 100 100 100 100 100 100 99 98 100 97 98 100 98 88 78 83
81 78 82 86 93 96 96 97 100 100 100 98 82 92 97 100 100 100 100 100 100 100 100 100 100 100 100 100 100 92 91 97 98 97 96 94 90 77
71 71 77 87 95 96 92 93 98 100 100 100 100 100 96 96 100 99 100 100 100 100 100 100 99 96 100 100 100 89 90 96 95 96 96 93 94 86
23 22 37 53 70 89 92 95 98 100 100 100 100 100 100 100 100 100 99 100 100 100 100 100 98 100 100 100 100 87 94 94 92 100 96 94 91 90
30 28 25 20 24 43 61 84 94 100 100 100 100 100 100 100 100 100 97 98 100 100 100 100 99 100 100 98 100 99 89 83 84 100 100 95 95 87
43 43 39 34 29 23 20 25 54 90 100 100 100 99 100 100 100 100 100 100 100 100 100 100 100 100 100 100 100 100 100 94 78 93 100 99 94 86

GFSNE_500_rhum_111.txt.gz
RH
17 13 10 8 7 7 7 9 11 22 44 71 72 83 76 74 90 98 96 98 94 94 90 100 100 99 98 97 63 78 28 21 22 29 23 22 20 20
14 10 7 9 14 17 22 28 34 34 37 76 84 86 98 100 99 97 98 95 95 97 95 100 100 98 99 91 40 67 25 22 28 35 30 24 24 24
7 5 5 6 7 8 10 14 26 50 63 83 94 100 96 99 100 99 96 100 100 100 96 95 98 97 99 94 66 30 27 24 35 35 27 25 27 25
4 4 4 5 6 9 12 14 16 19 27 47 61 64 98 99 91 94 99 100 98 98 96 94 98 97 99 97 47 30 31 44 38 30 29 28 30 27
5 5 5 6 8 12 17 20 21 21 22 24 21 42 76 75 91 100 100 100 99 97 99 100 100 98 98 96 42 39 89 44 61 46 41 30 32 31
6 7 7 7 7 8 11 16 19 24 25 30 33 34 32 37 47 77 94 99 99 100 100 99 99 98 97 99 92 82 68 55 84 83 33 36 37 35
10 11 10 9 10 10 10 12 17 25 29 33 34 29 30 33 36 39 62 81 98 98 97 99 94 98 99 99 96 89 97 79 98 72 51 43 42 40
12 12 12 12 11 11 12 12 18 28 27 39 40 43 41 38 38 46 61 96 95 98 92 99 99 93 100 97 100 97 90 100 89 100 62 46 47 46
13 13 14 14 13 14 14 16 22 29 34 39 51 53 47 50 58 70 84 100 96 95 100 97 98 95 100 100 100 100 100 92 86 94 58 56 55 48
15 15 17 18 18 18 20 24 24 31 40 46 52 60 56 59 65 74 89 100 100 97 98 100 100 100 100 100 99 98 100 100 100 93 67 74 67 54
19 20 19 19 20 20 22 23 22 24 46 49 55 62 64 63 67 76 72 87 100 94 100 100 100 100 100 100 100 100 100 100 100 88 90 94 75 61
24 26 23 22 21 21 23 30 30 28 44 52 60 67 70 80 87 80 99 98 100 100 100 100 100 100 100 100 100 100 99 100 99 96 100 99 81 70
31 27 25 24 22 23 24 22 25 40 46 51 66 70 70 78 94 91 90 92 97 99 100 100 100 100 100 100 100 100 100 100 100 100 100 100 80 78
32 29 28 25 25 25 23 23 30 45 50 54 72 75 80 76 79 82 99 100 100 100 100 100 99 100 100 100 100 100 100 100 100 100 100 96 84 90
36 33 28 26 27 24 25 36 44 47 52 63 77 86 95 97 92 84 92 98 100 100 100 100 100 100 100 100 100 100 100 100 100 100 100 97 97 100
39 36 29 32 34 34 40 50 59 66 57 66 83 87 84 94 99 100 100 100 94 98 100 100 100 100 100 100 100 100 100 100 100 100 99 98 100 98
44 39 40 43 44 51 56 63 75 82 84 83 88 94 99 78 100 98 100 100 100 99 100 100 100 100 100 100 100 100 100 100 100 100 99 100 97 89
54 53 50 55 57 64 71 73 78 87 94 89 89 93 98 90 72 91 99 100 100 99 100 100 100 100 100 100 100 100 100 100 100 100 100 96 85 91
60 56 57 62 65 70 73 79 85 88 89 89 94 96 99 100 92 88 89 93 91 93 100 100 100 100 100 100 100 100 100 100 100 100 100 98 87 90
64 72 67 64 53 38 44 54 68 87 91 89 86 90 94 100 100 100 99 96 99 99 100 100 100 100 100 100 100 96 100 100 100 100 100 100 94 86
80 58 35 26 24 24 23 20 23 40 66 83 89 89 91 99 100 100 100 100 100 100 100 98 88 100 100 100 100 97 100 100 100 100 100 100 98 100
79 33 38 41 36 38 38 33 28 22 20 33 62 81 86 90 96 100 100 100 100 100 100 99 100 100 100 100 100 99 99 99 98 100 100 100 100 100
84 45 44 49 47 45 42 40 39 35 32 30 23 28 71 92 93 95 97 100 100 100 100 100 100 100 100 100 100 100 100 99 100 100 100 99 100 100

GFSNE_500_rhum_114.txt.gz
RH
26 22 19 17 15 12 11 7 4 4 5 10 14 34 55 72 96 80 98 99 99 99 97 99 99 97 97 98 96 97 98 77 88 37 25 26 24 22
22 23 22 15 10 5 4 4 4 4 4 7 10 17 37 51 69 81 89 90 98 100 99 99 98 100 96 100 97 94 97 64 92 43 32 27 24 24
22 24 19 7 4 4 4 4 4 4 5 7 13 16 17 19 19 41 57 65 85 94 99 91 93 96 96 98 98 99 96 83 87 62 44 29 26 26
26 27 9 5 5 5 6 7 7 6 6 6 6 11 13 16 20 25 22 24 47 57 84 88 96 100 97 98 98 99 98 98 78 41 72 32 27 29
29 20 6 5 6 9 9 9 9 9 10 8 7 8 13 16 20 23 26 27 31 37 42 77 91 94 100 97 98 96 100 98 61 50 61 35 35 34
29 13 7 7 9 12 12 11 11 13 14 12 11 10 15 16 21 26 24 31 33 37 49 85 94 100 98 98 99 97 100 98 76 98 65 46 52 36
31 10 8 9 10 12 13 14 16 18 16 13 10 13 16 20 26 33 37 35 35 38 44 65 97 98 92 98 100 100 100 98 100 92 65 82 92 40
27 10 10 11 13 14 14 15 18 20 18 13 13 17 19 22 29 37 47 45 44 51 53 85 99 100 100 100 100 97 100 99 98 100 72 100 68 53
24 14 12 13 14 15 16 17 19 20 20 15 14 18 21 22 31 44 54 55 51 63 64 88 100 95 100 100 100 100 100 100 100 96 95 99 100 86
27 18 15 14 16 18 19 21 23 22 21 17 13 22 25 22 36 49 58 57 60 63 68 98 97 99 98 99 100 100 100 100 100 98 100 98 100 76
26 22 22 20 21 22 25 27 26 24 21 15 16 20 20 27 40 57 61 63 69 78 83 96 99 100 99 99 100 100 100 100 100 100 99 100 98 84
32 27 27 27 26 26 33 32 31 26 18 14 18 20 22 27 43 64 63 62 76 89 82 92 94 92 100 100 100 100 100 100 100 100 100 100 99 98
36 33 36 34 35 39 38 34 28 20 17 16 15 18 24 35 53 72 65 59 71 83 91 96 100 98 100 99 100 100 100 100 100 100 100 99 99 100
57 44 44 50 55 47 37 28 23 20 17 14 19 24 31 41 64 79 80 85 81 85 74 93 100 100 100 99 100 100 100 100 100 100 100 100 99 100
65 59 67 62 51 36 30 28 26 22 20 24 33 34 43 48 75 86 94 91 90 95 90 100 100 100 100 100 100 100 100 100 100 100 100 99 100 100
77 67 60 48 42 38 35 34 33 32 35 42 47 54 64 61 80 90 88 93 88 98 100 100 100 99 100 100 100 100 100 100 100 100 100 100 100 100
77 71 54 48 46 42 42 45 46 42 46 51 56 68 78 84 95 98 100 86 87 99 100 100 100 100 100 100 100 100 100 100 100 100 100 100 100 100
66 57 54 53 54 53 55 53 52 54 54 58 64 70 74 88 98 100 100 93 76 84 98 97 99 97 99 100 100 100 100 100 100 100 100 100 100 100
63 59 58 56 61 62 57 60 59 60 57 61 66 77 80 83 89 93 99 100 95 95 97 99 100 98 91 100 100 100 99 99 100 99 99 100 100 100
74 69 73 70 68 66 70 64 54 33 21 25 33 52 76 80 86 88 91 94 99 100 100 100 100 93 94 100 100 96 100 100 100 99 100 100 100 100
77 74 80 81 76 78 61 30 27 26 27 26 24 21 26 55 76 82 86 86 92 98 100 100 95 98 100 100 100 100 100 100 100 100 99 94 97 99
85 88 88 93 93 88 43 38 42 39 40 39 36 32 27 22 29 61 81 86 93 97 99 95 98 100 100 100 100 100 100 100 100 100 100 100 100 100
88 87 90 92 92 89 72 43 50 49 45 42 40 40 38 33 31 27 26 61 90 94 98 96 92 99 100 100 100 98 100 100 100 100 100 100 100 100

GFSNE_500_rhum_117.txt.gz
RH
38 31 31 27 24 21 13 10 9 7 4 4 3 3 3 4 4 4 6 8 12 12 31 58 72 81 98 93 100 94 94 99 98 100 98 92 92 99
52 39 33 35 28 18 13 11 7 5 4 5 5 5 5 5 6 6 6 10 11 13 15 16 31 50 72 93 85 90 80 86 99 99 98 100 35 47
57 43 32 35 28 21 12 6 5 6 6 6 6 7 6 6 8 8 7 7 10 12 17 20 20 24 30 66 88 87 84 95 95 99 97 93 63 64
54 42 30 30 32 27 14 7 6 8 6 6 9 9 8 9 7 5 6 7 11 13 20 20 23 25 30 38 81 98 100 98 98 98 98 100 98 70
52 47 24 30 32 28 14 8 7 10 9 10 13 15 13 10 8 6 6 8 13 17 23 27 29 31 31 37 88 100 98 99 99 100 100 100 82 92
62 34 25 33 32 32 20 10 8 10 12 12 14 18 18 17 11 8 7 9 17 24 33 40 40 39 40 40 63 90 90 100 100 100 100 98 51 99
40 28 43 35 28 30 25 12 9 12 14 14 16 18 22 22 17 11 10 15 21 32 41 47 51 50 52 67 64 94 100 97 100 100 100 100 99 98
30 36 42 34 26 32 27 13 10 12 14 16 17 21 26 23 15 10 16 21 21 27 44 55 52 45 58 74 100 100 100 100 100 100 100 100 100 99
31 37 38 26 26 34 35 21 14 14 17 18 22 26 30 21 16 13 16 19 20 29 47 59 56 59 66 81 87 100 92 100 100 100 100 100 100 98
34 35 27 22 26 34 36 25 19 18 22 23 27 34 32 20 14 13 18 19 24 39 55 59 64 69 79 87 76 96 92 98 100 100 100 100 100 100
28 24 27 40 39 35 37 30 25 24 26 29 37 39 27 16 14 13 14 17 26 47 62 63 74 76 76 94 92 96 100 100 100 100 100 100 99 100
26 26 31 37 49 52 39 32 35 36 38 45 41 35 19 15 12 10 13 21 37 60 69 60 62 67 82 87 84 90 100 100 96 100 100 100 100 100
33 38 50 52 53 63 56 48 46 54 56 45 32 22 18 15 13 14 19 32 49 73 79 77 75 69 76 81 93 90 100 100 100 100 99 100 100 100
61 61 57 60 78 75 69 66 68 61 48 34 28 21 18 14 19 24 33 49 58 83 85 91 80 82 78 75 88 94 100 100 100 100 100 100 100 100
72 79 87 83 78 89 90 81 66 50 40 38 31 23 20 24 31 39 59 69 68 86 92 95 88 92 93 92 89 91 94 100 100 96 100 100 100 100
88 100 99 88 87 91 76 71 58 42 40 40 38 32 31 33 40 51 63 80 85 92 90 95 88 96 100 100 100 99 100 100 98 100 100 100 100 100
100 100 100 98 94 87 80 63 54 46 41 45 47 42 41 45 50 57 62 80 91 96 100 100 94 93 100 100 99 95 98 96 93 100 100 100 100 100
92 99 100 93 88 76 67 64 59 50 48 50 47 47 49 53 56 62 65 73 87 94 99 100 100 99 92 95 99 100 97 91 98 100 100 100 100 100
100 100 91 80 76 74 72 70 63 59 60 55 54 53 55 48 52 56 70 72 80 92 96 100 100 100 100 97 100 100 96 96 96 98 100 99 95 97
97 95 90 86 78 72 74 74 69 68 66 62 60 50 24 20 21 26 42 63 78 84 93 99 100 98 99 100 100 100 100 96 100 100 99 97 100 100
95 96 96 86 74 72 72 74 76 78 75 72 47 33 27 28 26 24 22 28 53 77 83 85 90 100 100 99 100 99 100 100 100 100 100 100 100 100
100 100 99 93 80 76 72 70 77 87 89 75 39 38 37 39 39 38 36 31 25 30 58 82 83 94 100 100 100 100 100 100 98 99 100 100 100 100
100 100 100 100 90 82 83 81 80 89 94 92 58 46 48 46 42 42 41 41 37 35 30 28 47 83 100 100 100 100 100 100 100 100 100 100 100 100

GFSNE_500_rhum_120.txt.gz
RH
96 81 52 35 37 34 32 24 16 12 10 10 8 6 4 4 4 5 5 5 4 4 4 4 4 4 8 13 16 20 43 67 81 87 100 96 100 97
93 88 84 62 41 38 37 22 16 14 11 11 9 6 6 6 7 7 7 7 5 5 5 4 5 7 11 19 20 20 27 40 84 99 100 97 100 100
86 77 69 54 43 38 37 29 21 16 14 13 8 8 7 8 9 9 8 9 8 7 6 5 8 16 24 28 28 28 28 33 80 98 100 100 100 100
76 67 66 59 50 41 34 31 21 18 16 14 8 10 10 10 10 12 13 15 14 12 7 7 9 19 30 39 39 33 32 34 68 96 100 100 100 100
74 72 72 65 51 47 30 32 24 20 19 14 9 9 11 12 12 13 18 22 21 16 9 8 11 19 32 46 49 45 43 43 68 79 100 100 100 99
65 63 68 68 54 42 32 35 29 25 24 21 16 11 11 13 14 15 19 24 25 16 9 9 17 23 36 53 56 44 44 64 83 98 100 100 100 100
58 53 55 53 52 33 33 41 32 25 24 25 26 16 11 12 14 16 19 26 27 16 11 12 17 21 35 61 56 53 58 74 77 94 100 100 100 100
48 50 53 50 35 30 32 36 32 23 24 27 36 31 20 15 16 19 24 31 28 15 12 17 17 22 44 64 67 54 65 72 68 99 100 100 100 100
53 52 44 35 31 30 31 30 28 21 24 37 37 33 25 20 21 25 33 36 25 12 12 15 20 29 56 71 67 67 67 68 78 99 98 98 100 100
44 38 37 34 34 32 31 30 25 27 39 37 40 37 31 25 30 36 40 32 15 13 11 11 23 33 62 76 74 70 65 82 77 94 100 94 100 100
36 34 34 32 30 29 26 25 27 36 37 46 47 38 34 37 45 47 39 21 14 12 12 13 33 44 71 76 80 72 71 72 85 100 100 98 100 100
43 38 34 33 31 29 28 28 29 44 52 54 57 57 47 55 54 42 24 18 14 13 15 22 41 61 78 78 72 67 74 91 96 100 100 100 100 100
62 57 48 40 35 33 34 38 46 53 60 69 74 63 65 62 49 30 22 18 18 16 22 32 56 79 91 89 84 85 82 82 97 99 100 100 99 99
38 32 30 33 40 52 60 62 60 60 77 73 75 75 75 54 35 27 24 21 24 27 38 59 69 80 100 100 91 91 90 84 100 100 100 100 98 100
49 40 46 57 63 66 71 72 79 75 73 75 80 75 62 44 36 30 28 30 32 35 46 69 85 93 100 100 94 100 98 96 100 100 100 100 100 100
72 74 79 83 84 80 74 81 80 78 78 83 79 73 51 46 38 37 35 35 39 45 52 73 93 97 100 100 94 100 100 100 100 98 99 100 90 98
89 88 84 90 100 94 86 90 86 91 90 95 77 58 54 46 39 43 42 42 48 50 59 71 96 100 100 100 98 100 100 100 100 100 99 100 93 95
99 98 97 100 100 94 92 96 98 94 91 81 70 60 55 48 48 47 46 50 52 54 64 75 84 100 100 100 100 100 100 100 100 100 96 97 100 100
99 89 92 90 93 94 94 100 100 98 91 77 70 65 61 56 54 51 51 47 32 38 54 72 84 89 98 100 100 99 100 100 100 100 100 100 100 100
100 100 98 94 99 98 99 100 100 99 84 75 67 63 66 65 62 58 47 28 22 23 26 43 65 86 99 100 100 100 100 100 100 100 100 100 96 99
100 100 100 99 96 99 100 100 100 96 81 70 63 65 70 72 73 55 39 31 28 27 25 24 30 68 89 94 100 100 100 100 100 100 100 100 100 100
100 100 100 99 100 100 98 100 99 92 86 78 74 72 73 78 84 64 42 42 39 39 39 38 34 29 38 84 96 100 98 100 100 100 100 100 100 100
100 98 99 100 100 100 100 100 100 100 97 86 81 78 75 78 89 89 57 51 50 45 42 44 47 43 38 34 35 68 100 100 100 100 100 100 99 100

GFSNE_500_rhum_126.txt.gz
RH
85 96 85 94 96 96 99 84 61 42 29 28 22 20 40 21 12 12 11 9 9 10 11 10 9 8 8 11 12 14 18 13 8 10 17 21 24 26
94 95 94 96 97 96 99 96 54 35 39 31 36 43 24 18 14 13 12 9 10 10 14 14 13 12 12 12 13 17 23 16 9 10 17 22 37 36
95 96 96 95 97 95 98 99 58 61 56 48 45 32 27 19 16 16 14 12 12 12 15 15 14 12 13 13 16 22 26 16 10 11 16 20 42 43
94 95 96 95 97 97 94 100 80 62 72 60 36 37 37 31 23 18 16 16 16 16 20 20 17 14 14 15 19 24 29 19 11 13 18 30 39 27
97 96 95 97 96 97 89 94 91 77 54 50 42 43 42 35 29 21 19 18 18 20 22 28 31 32 22 20 22 28 30 19 11 13 18 37 37 30
96 96 96 96 96 96 97 97 96 82 76 65 61 55 50 49 35 26 25 23 22 20 21 26 34 36 38 27 28 33 33 16 12 13 24 58 46 51
98 98 96 96 94 94 97 97 95 89 81 79 72 64 64 58 48 31 33 31 25 24 24 31 38 42 37 29 34 36 31 15 11 10 16 53 53 60
97 97 97 98 96 97 89 100 96 94 92 92 72 68 71 63 54 38 31 30 29 25 28 34 41 45 37 43 43 41 23 14 12 12 17 56 56 55
99 96 98 98 96 95 92 92 91 92 97 79 78 73 61 55 50 32 30 30 28 26 32 36 43 51 47 47 45 39 20 14 12 16 35 65 61 67
97 98 95 98 96 99 98 98 100 100 93 82 66 55 54 45 35 32 30 29 26 28 34 43 49 56 54 53 50 29 18 13 11 24 56 70 67 70
99 96 97 97 100 89 87 88 89 82 74 67 62 59 54 37 37 32 29 28 30 37 41 49 50 60 59 57 35 22 17 14 19 40 77 72 67 68
99 100 99 98 98 95 95 90 81 71 68 79 67 58 60 42 34 36 34 33 38 47 51 52 56 58 65 49 30 23 19 18 34 65 88 88 86 72
98 100 98 99 98 100 99 100 95 90 93 73 82 84 50 52 47 40 37 44 51 49 54 49 64 68 58 38 27 24 21 32 53 69 90 93 86 83
98 98 98 100 98 99 99 82 74 72 78 74 79 79 60 40 36 40 50 56 59 64 55 50 59 68 55 35 28 23 28 42 66 77 96 97 88 91
99 98 99 100 100 100 100 100 97 90 79 68 54 44 38 42 54 63 64 63 73 62 62 67 78 65 45 34 32 28 35 47 74 79 97 91 95 100
100 100 100 100 100 100 100 88 62 56 56 54 51 53 63 62 75 80 80 75 70 65 77 79 71 56 43 36 33 36 42 53 64 78 100 95 93 100
96 98 99 99 99 90 77 73 74 70 72 79 81 81 93 96 96 91 83 79 80 83 77 75 63 52 44 42 46 42 49 58 65 87 91 98 99 100
92 95 87 84 93 99 100 100 100 100 100 97 100 100 100 99 100 94 92 87 90 90 81 68 60 54 44 51 51 48 47 54 65 87 93 99 94 97
100 100 100 100 100 100 100 100 100 100 100 100 100 99 97 99 100 94 96 92 98 96 80 68 62 56 55 60 39 29 28 32 57 82 82 95 100 90
100 98 100 100 100 100 100 100 100 100 100 100 100 99 96 100 100 98 90 71 93 96 81 67 58 65 68 55 43 28 24 26 36 71 84 92 93 100
20 47 88 100 100 100 100 98 100 100 100 100 100 100 100 88 92 93 84 66 87 96 83 68 64 69 71 54 43 38 27 26 29 37 69 95 98 100
24 17 28 84 100 100 100 98 100 98 100 100 100 100 100 93 98 78 76 65 83 97 89 75 68 77 86 69 49 42 36 37 36 33 33 58 93 100
66 26 20 21 82 100 100 100 100 100 100 100 100 100 100 100 100 100 91 64 82 100 95 80 81 82 82 94 68 53 48 43 42 47 55 57 40 63

GFSNE_500_rhum_129.txt.gz
RH
95 93 95 79 87 92 98 95 94 95 93 91 70 52 37 26 21 16 20 35 22 12 12 9 8 7 7 10 13 16 17 20 20 21 23 24 11 8
93 86 96 96 71 85 96 96 94 94 99 88 77 64 41 29 25 20 21 39 25 16 14 11 10 11 12 11 14 20 28 30 24 23 28 27 12 9
96 93 99 94 98 97 97 96 96 96 96 89 91 74 40 34 31 30 35 39 23 19 18 16 14 14 14 13 15 18 26 34 31 26 30 30 14 9
95 94 98 94 96 100 95 97 96 98 96 94 94 97 40 49 44 42 42 38 37 32 26 20 18 16 14 17 17 20 27 36 34 30 36 32 14 9
94 97 96 94 95 93 96 96 98 97 98 98 90 100 61 63 56 47 41 37 41 39 34 25 22 17 20 22 22 24 24 34 34 35 40 32 13 11
96 96 96 96 94 96 96 97 97 96 92 92 90 93 84 71 58 58 51 55 52 49 52 37 28 24 23 25 25 25 29 39 41 40 42 26 12 10
95 97 92 96 96 96 98 96 95 96 96 92 82 88 99 87 79 73 72 72 69 68 63 56 45 27 28 29 28 27 33 43 46 43 43 23 13 12
99 97 98 98 98 99 99 100 92 97 100 93 97 97 98 98 97 97 92 94 83 76 67 58 44 31 30 29 28 30 40 43 51 49 39 20 12 14
92 95 92 98 97 100 95 98 95 98 97 93 100 98 97 97 98 97 98 97 89 86 84 63 35 32 30 28 31 38 42 44 48 50 32 17 11 13
96 98 89 95 98 98 98 98 98 98 97 97 95 98 98 97 96 95 97 98 97 77 83 43 55 52 29 33 38 41 41 46 52 44 25 15 10 26
98 98 98 98 98 95 97 98 97 99 98 98 97 94 96 97 97 99 99 96 77 83 85 69 57 37 34 42 46 41 42 50 50 32 20 14 16 29
95 98 98 99 97 96 97 99 100 99 97 99 94 91 97 95 95 96 95 98 99 97 97 96 68 49 43 48 54 51 52 58 46 26 19 14 32 55
100 97 98 98 98 98 98 98 98 98 99 98 100 97 98 93 95 98 99 99 99 98 96 81 54 48 51 55 56 50 53 57 39 26 21 21 38 59
98 98 99 100 100 99 98 98 99 99 100 100 100 99 98 99 99 100 100 100 100 94 79 64 64 59 61 67 57 60 69 52 35 28 24 34 56 72
100 100 99 100 100 100 100 100 100 100 100 100 100 100 100 100 100 100 100 100 94 88 82 74 65 63 71 66 62 74 64 44 38 32 28 37 54 75
44 83 98 100 100 100 100 100 100 100 100 100 100 100 100 100 98 97 100 98 98 95 94 90 81 77 75 74 76 72 56 47 44 40 37 42 62 77
26 25 19 28 69 97 100 100 100 100 100 100 98 99 98 98 100 98 99 100 100 99 93 83 81 86 82 85 81 64 51 52 42 46 42 46 60 81
42 40 36 32 24 42 92 100 100 100 100 100 100 100 100 100 100 100 99 96 94 91 92 80 88 91 92 90 77 62 53 49 47 48 44 45 53 73
57 57 51 40 36 26 38 98 100 100 100 100 98 100 100 100 98 98 100 100 92 90 100 97 86 82 95 92 74 62 53 52 48 33 28 32 49 78
62 62 58 52 46 42 27 25 98 100 100 100 100 100 100 100 100 100 100 95 91 98 100 99 82 71 95 93 77 64 58 59 52 37 25 27 39 64
65 63 64 61 57 54 43 23 75 98 100 100 100 100 100 100 100 100 99 99 93 100 96 86 84 68 83 98 85 68 71 64 56 43 29 26 29 46
66 66 74 82 88 100 77 40 19 33 89 100 100 100 100 100 98 100 100 100 100 100 93 89 84 72 77 97 90 72 70 75 68 52 38 33 32 32
62 78 86 96 100 100 94 69 41 20 75 100 100 100 100 98 94 100 100 100 100 100 100 92 89 76 71 94 95 89 79 76 82 75 54 44 41 41